GFSWCAN_prec_pwat_273.txt.gz
Precipitable_Water
0.78 0.76 0.74 0.75 0.71 0.71 0.67 0.64 0.68 0.70 0.67 0.72 0.77 0.87 0.93 0.96 1.03 1.01 0.92 1.05 0.92 0.79 0.91 1.08 1.16 0.96 0.96 0.95 0.83 0.81 0.75 0.72 0.66 0.55 0.51 0.40 0.40 0.43 0.43 0.50 0.46 0.47 0.43 0.45 0.46 0.41 0.42 0.81 0.77 0.65 0.83 0.93 0.90 0.88
0.74 0.72 0.71 0.71 0.72 0.70 0.70 0.66 0.64 0.67 0.68 0.68 0.76 0.85 0.90 0.96 1.03 1.05 0.88 1.02 1.01 0.81 0.73 1.02 1.24 1.22 1.17 1.10 1.01 0.96 0.86 0.79 0.68 0.61 0.61 0.52 0.49 0.58 0.50 0.46 0.63 0.52 0.60 0.56 0.61 0.64 0.80 0.90 0.83 0.92 0.97 0.94 0.96 0.93
0.69 0.69 0.68 0.68 0.70 0.70 0.69 0.69 0.66 0.66 0.70 0.66 0.66 0.77 0.87 0.95 1.03 1.03 0.93 0.94 0.91 0.77 0.74 0.84 0.95 1.17 1.21 1.21 1.26 0.94 0.95 0.96 0.87 0.84 0.75 0.64 0.61 0.66 0.56 0.60 0.61 0.66 0.74 0.66 0.67 0.80 0.79 0.85 0.98 1.04 1.00 0.91 0.92 0.94
0.67 0.67 0.65 0.66 0.68 0.71 0.68 0.70 0.70 0.67 0.71 0.71 0.68 0.72 0.81 0.90 1.01 1.04 0.89 0.95 0.91 0.82 0.65 0.77 1.15 1.10 1.13 1.19 1.23 1.19 1.08 1.11 1.02 0.88 0.75 0.69 0.67 0.73 0.66 0.68 0.69 0.80 0.80 0.75 0.75 0.81 0.88 0.94 0.97 0.99 0.96 0.88 0.85 1.04
0.67 0.66 0.66 0.67 0.69 0.71 0.67 0.68 0.71 0.71 0.73 0.73 0.67 0.68 0.73 0.84 1.00 1.02 0.95 0.97 0.99 0.82 0.68 0.78 1.04 1.09 1.13 1.12 1.12 1.18 1.13 1.06 0.96 0.83 0.73 0.69 0.72 0.71 0.79 0.76 0.70 0.82 0.79 0.73 0.77 0.93 0.87 0.87 0.94 0.97 0.88 0.84 0.94 1.03
0.67 0.68 0.69 0.69 0.69 0.69 0.69 0.71 0.72 0.73 0.74 0.73 0.69 0.67 0.69 0.86 1.01 0.94 0.82 0.95 1.03 1.03 0.85 0.71 1.03 0.97 1.00 1.01 1.02 1.10 1.08 1.06 1.02 0.89 0.79 0.74 0.79 0.72 0.69 0.66 0.85 0.92 0.95 0.97 0.91 0.99 0.92 0.88 0.88 0.93 0.82 0.87 1.10 1.17
0.69 0.68 0.71 0.73 0.73 0.71 0.72 0.72 0.72 0.74 0.76 0.72 0.68 0.66 0.70 0.90 1.01 0.85 0.80 0.99 1.05 1.06 0.90 0.78 0.79 0.97 0.96 0.89 0.90 0.97 1.06 1.02 0.95 0.90 0.80 0.82 0.80 0.79 0.71 0.59 0.79 0.85 0.97 0.92 0.84 0.81 0.76 0.82 0.87 0.93 0.87 1.09 1.25 1.21
0.67 0.67 0.71 0.72 0.74 0.74 0.72 0.70 0.69 0.70 0.71 0.68 0.66 0.64 0.72 0.92 1.00 0.88 1.06 1.06 1.03 0.95 0.97 0.77 0.77 0.81 0.97 0.78 0.74 0.84 0.83 0.88 0.83 0.73 0.76 0.75 0.81 0.78 0.61 0.74 0.82 0.86 0.90 0.93 0.96 0.99 0.99 1.01 0.92 0.94 1.09 1.19 1.19 1.16
0.68 0.66 0.71 0.74 0.74 0.70 0.66 0.64 0.66 0.69 0.68 0.65 0.64 0.69 0.80 0.87 0.83 0.93 1.08 1.11 1.03 1.00 0.80 0.81 0.83 0.71 1.10 0.84 0.77 0.73 0.72 0.58 0.67 0.55 0.55 0.59 0.65 0.55 0.56 0.79 0.90 0.90 0.91 0.93 0.94 0.87 0.92 1.05 1.01 1.01 0.99 1.11 1.16 1.17
0.70 0.69 0.72 0.73 0.72 0.67 0.64 0.63 0.66 0.68 0.64 0.64 0.62 0.72 0.71 0.85 1.06 1.07 0.96 0.85 0.85 0.92 0.88 0.75 0.97 0.87 0.91 0.81 0.72 0.65 0.66 0.55 0.48 0.53 0.59 0.55 0.57 0.74 0.81 0.90 0.93 0.90 0.88 0.89 0.83 0.87 0.98 1.00 1.11 1.18 1.15 1.34 1.22 1.14
0.69 0.71 0.70 0.70 0.67 0.65 0.64 0.64 0.68 0.68 0.66 0.64 0.67 0.74 0.98 1.11 0.99 0.88 0.77 0.71 0.73 0.65 0.75 0.73 0.84 0.84 1.07 0.83 0.75 0.72 0.58 0.59 0.45 0.50 0.48 0.49 0.54 0.84 0.98 0.94 0.94 0.97 1.00 1.12 1.15 1.15 1.14 1.05 1.09 1.24 1.24 1.21 1.16 1.18
0.69 0.68 0.67 0.70 0.72 0.69 0.67 0.67 0.69 0.66 0.64 0.70 0.83 1.00 0.97 0.87 0.80 0.73 0.68 0.71 0.67 0.56 0.68 0.64 0.77 0.90 0.98 1.12 0.84 0.79 0.64 0.65 0.49 0.66 0.55 0.44 0.56 0.88 0.96 0.97 1.02 1.12 1.14 1.10 1.13 1.17 1.22 1.23 1.23 1.18 1.16 1.22 1.25 1.21
0.68 0.67 0.67 0.69 0.70 0.72 0.72 0.71 0.69 0.70 0.78 0.88 0.83 0.75 0.74 0.73 0.60 0.58 0.53 0.58 0.60 0.67 0.70 0.72 0.74 0.94 0.97 1.17 1.00 0.80 0.70 0.62 0.76 0.59 0.52 0.65 0.86 1.01 1.06 1.15 1.18 1.20 1.14 1.07 1.09 1.13 1.17 1.17 1.18 1.12 1.08 1.13 1.15 1.13
0.71 0.69 0.67 0.68 0.72 0.68 0.68 0.69 0.68 0.72 0.76 0.72 0.67 0.57 0.62 0.61 0.65 0.69 0.70 0.68 0.70 0.73 0.72 0.81 0.82 0.99 0.89 0.91 0.87 0.71 0.77 0.85 0.62 0.54 0.59 0.82 1.00 1.13 1.29 1.26 1.15 1.13 1.13 1.08 1.06 1.07 1.05 1.03 1.04 1.08 1.07 1.10 1.09 1.09
0.72 0.71 0.68 0.68 0.71 0.65 0.67 0.67 0.67 0.79 0.82 0.68 0.69 0.57 0.64 0.74 0.80 0.86 0.90 0.85 0.92 1.02 0.88 0.87 0.83 0.93 0.83 0.82 0.88 0.84 0.70 0.65 0.71 0.66 0.82 0.99 1.13 1.18 1.24 1.26 1.22 1.12 1.08 1.03 1.05 1.02 1.00 0.99 0.98 1.01 1.07 1.10 1.11 1.10
0.72 0.69 0.66 0.70 0.68 0.65 0.67 0.69 0.72 0.87 0.81 0.73 0.73 0.68 0.76 0.76 0.80 0.89 0.93 0.89 0.93 0.94 0.95 0.98 0.81 0.75 0.82 0.86 0.78 0.73 0.69 0.65 0.82 0.96 1.12 1.18 1.21 1.19 1.25 1.20 1.14 1.05 1.03 1.02 1.02 1.02 1.01 0.99 0.98 0.99 1.05 1.07 1.07 1.06
0.71 0.65 0.71 0.68 0.66 0.67 0.68 0.70 0.75 0.72 0.73 0.71 0.69 0.82 0.81 0.82 0.82 0.89 0.93 0.94 1.06 0.89 0.74 0.84 0.78 0.73 0.83 0.74 0.72 0.78 0.73 0.84 1.02 1.08 1.22 1.27 1.16 1.12 1.13 1.08 1.05 1.04 1.01 1.01 1.01 1.01 0.99 1.01 1.02 0.99 0.94 0.94 0.90 0.88
0.66 0.76 0.71 0.66 0.66 0.70 0.72 0.74 0.73 0.70 0.64 0.72 0.68 0.74 0.81 0.84 0.84 0.94 1.02 1.05 1.00 0.88 0.83 0.83 0.90 0.79 0.72 0.66 0.73 0.87 0.86 0.98 1.14 1.20 1.23 1.22 1.17 1.16 1.13 1.08 1.10 1.10 1.05 1.03 1.02 1.03 1.03 1.00 0.96 0.89 0.85 0.81 0.76 0.72
0.63 0.64 0.66 0.66 0.72 0.71 0.70 0.73 0.78 0.64 0.68 0.76 0.79 0.84 0.86 0.87 0.97 1.06 1.10 1.15 1.14 1.12 0.97 0.98 0.85 0.79 0.81 0.96 0.93 0.95 1.00 1.12 1.19 1.17 1.16 1.16 1.15 1.14 1.13 1.15 1.12 1.03 1.03 1.02 1.02 0.98 0.97 0.97 0.89 0.86 0.80 0.76 0.65 0.60
0.67 0.67 0.68 0.73 0.77 0.73 0.70 0.72 0.84 0.69 0.67 0.74 0.80 0.80 0.86 0.87 0.96 1.04 1.07 1.11 1.08 1.03 0.92 0.89 0.90 0.96 0.96 1.06 1.19 1.24 1.17 1.27 1.21 1.11 1.10 1.17 1.20 1.15 1.13 1.12 1.07 1.09 1.11 1.10 1.03 0.98 0.93 0.84 0.77 0.75 0.70 0.64 0.56 0.52
0.74 0.75 0.79 0.83 0.85 0.85 0.79 0.77 0.73 0.77 0.78 0.74 0.81 0.84 0.83 0.93 0.95 0.98 0.98 1.04 0.92 0.94 0.91 1.01 1.03 1.15 1.21 1.23 1.29 1.37 1.27 1.26 1.17 1.10 1.07 1.04 1.12 1.12 1.12 1.15 1.13 1.08 1.02 0.98 0.93 0.89 0.86 0.75 0.70 0.63 0.60 0.52 0.49 0.47
0.80 0.85 0.82 0.90 0.80 0.80 0.75 0.84 0.79 0.82 0.78 0.78 0.82 0.86 0.82 0.82 0.88 0.93 0.99 0.89 0.89 0.96 1.02 1.03 1.09 1.18 1.21 1.18 1.24 1.29 1.26 1.24 1.21 1.18 1.19 1.17 1.08 1.07 1.08 1.07 1.04 1.03 1.00 0.93 0.90 0.80 0.74 0.69 0.61 0.53 0.49 0.46 0.46 0.43
0.94 0.95 0.91 0.89 0.78 0.76 0.72 0.89 0.74 0.79 0.70 0.74 0.81 0.77 0.79 0.86 0.93 0.99 0.83 0.89 0.93 1.06 1.09 1.12 1.17 1.23 1.22 1.27 1.28 1.27 1.28 1.23 1.17 1.18 1.18 1.15 1.12 1.11 1.07 1.09 1.07 1.00 0.92 0.85 0.78 0.68 0.58 0.51 0.49 0.49 0.47 0.49 0.48 0.44
0.94 0.81 0.76 0.75 0.77 0.69 0.83 0.77 0.83 0.78 0.80 0.76 0.74 0.73 0.79 0.83 0.89 0.79 0.74 0.84 0.98 1.09 1.08 1.11 1.14 1.13 1.17 1.19 1.16 1.17 1.18 1.20 1.15 1.13 1.13 1.08 1.04 1.02 1.01 1.00 1.01 0.98 0.78 0.68 0.62 0.59 0.52 0.48 0.45 0.47 0.46 0.42 0.42 0.43
0.65 0.66 0.74 0.69 0.77 0.72 0.70 0.74 0.76 0.76 0.68 0.73 0.72 0.72 0.75 0.84 0.72 0.71 0.74 0.86 0.99 1.04 1.07 1.09 1.08 1.09 1.06 1.07 1.10 1.12 1.19 1.19 1.13 1.07 1.12 1.12 1.06 1.02 0.95 0.86 0.75 0.70 0.69 0.64 0.58 0.55 0.53 0.46 0.44 0.46 0.42 0.41 0.42 0.40
0.58 0.72 0.69 0.71 0.72 0.68 0.68 0.66 0.70 0.71 0.74 0.72 0.73 0.78 0.81 0.74 0.67 0.69 0.82 0.93 1.00 1.04 1.05 1.06 1.06 1.07 1.10 1.14 1.11 1.11 1.12 1.15 1.08 0.97 0.96 0.97 0.92 0.85 0.79 0.73 0.70 0.67 0.64 0.59 0.53 0.49 0.45 0.42 0.41 0.41 0.40 0.42 0.42 0.43
0.62 0.66 0.76 0.84 0.77 0.73 0.71 0.74 0.80 0.78 0.71 0.72 0.76 0.76 0.75 0.66 0.67 0.78 0.91 0.97 0.96 1.05 1.13 1.17 1.13 1.10 1.08 1.09 1.11 1.12 1.13 1.13 1.10 1.03 0.98 0.92 0.86 0.76 0.73 0.69 0.62 0.58 0.55 0.47 0.44 0.41 0.39 0.39 0.39 0.40 0.41 0.44 0.46 0.47
0.73 0.74 0.64 0.71 0.71 0.74 0.66 0.70 0.71 0.72 0.75 0.84 0.85 0.76 0.72 0.71 0.71 0.84 0.89 0.96 1.00 1.03 1.04 1.06 1.06 1.04 1.01 1.02 1.02 0.99 1.00 1.00 0.95 0.86 0.74 0.65 0.62 0.62 0.62 0.60 0.57 0.50 0.43 0.39 0.39 0.39 0.40 0.43 0.44 0.44 0.44 0.44 0.44 0.46
0.73 0.79 0.77 0.69 0.72 0.73 0.73 0.71 0.73 0.82 0.88 0.85 0.79 0.75 0.79 0.90 0.94 0.90 0.92 0.91 0.95 0.90 0.85 0.85 0.86 0.90 0.86 0.84 0.83 0.83 0.80 0.72 0.60 0.50 0.48 0.49 0.49 0.49 0.49 0.40 0.34 0.37 0.34 0.34 0.36 0.38 0.40 0.40 0.41 0.46 0.47 0.46 0.47 0.49
0.72 0.83 0.72 0.72 0.70 0.68 0.76 0.82 0.79 0.88 0.90 0.90 0.91 0.88 0.87 0.90 0.92 0.94 0.87 0.84 0.80 0.72 0.69 0.67 0.68 0.69 0.70 0.70 0.69 0.66 0.65 0.62 0.58 0.56 0.53 0.51 0.51 0.53 0.50 0.42 0.40 0.42 0.44 0.45 0.44 0.45 0.48 0.51 0.52 0.51 0.49 0.50 0.51 0.53
0.79 0.79 0.72 0.73 0.72 0.79 0.84 0.89 0.91 0.89 0.87 0.85 0.88 0.81 0.78 0.83 0.90 0.92 0.84 0.81 0.76 0.72 0.68 0.64 0.63 0.62 0.61 0.59 0.57 0.55 0.52 0.55 0.55 0.54 0.52 0.49 0.50 0.49 0.44 0.40 0.41 0.43 0.43 0.42 0.45 0.48 0.51 0.51 0.51 0.51 0.51 0.53 0.56 0.58
0.78 0.73 0.69 0.67 0.72 0.83 0.86 0.81 0.80 0.79 0.81 0.81 0.80 0.84 0.83 0.80 0.73 0.77 0.80 0.77 0.70 0.64 0.62 0.60 0.57 0.56 0.57 0.57 0.56 0.55 0.54 0.54 0.54 0.51 0.46 0.46 0.41 0.36 0.36 0.37 0.41 0.45 0.47 0.48 0.50 0.53 0.55 0.54 0.52 0.53 0.56 0.58 0.57 0.56
0.75 0.78 0.77 0.76 0.73 0.71 0.74 0.72 0.71 0.72 0.74 0.73 0.73 0.74 0.73 0.72 0.66 0.72 0.79 0.79 0.76 0.72 0.64 0.63 0.61 0.59 0.58 0.56 0.56 0.56 0.55 0.53 0.50 0.42 0.33 0.33 0.34 0.38 0.43 0.47 0.48 0.48 0.48 0.50 0.54 0.57 0.58 0.57 0.55 0.57 0.56 0.55 0.54 0.52

GFSWCAN_prec_pwat_276.txt.gz
Precipitable_Water
0.79 0.77 0.75 0.73 0.72 0.72 0.70 0.69 0.64 0.62 0.62 0.65 0.68 0.72 0.75 0.83 0.88 0.86 0.85 0.97 0.82 0.66 0.75 0.94 1.03 0.89 0.93 0.87 0.70 0.72 0.67 0.65 0.59 0.48 0.44 0.41 0.38 0.46 0.44 0.51 0.49 0.48 0.44 0.42 0.42 0.37 0.35 0.71 0.68 0.51 0.69 0.82 0.84 0.86
0.79 0.73 0.70 0.70 0.70 0.69 0.69 0.68 0.67 0.63 0.62 0.65 0.64 0.68 0.75 0.80 0.87 0.92 0.81 0.98 0.95 0.73 0.71 0.97 1.03 1.05 1.12 1.10 0.93 0.84 0.79 0.82 0.78 0.56 0.55 0.52 0.42 0.47 0.46 0.40 0.58 0.47 0.52 0.48 0.51 0.50 0.72 0.78 0.74 0.85 0.90 0.87 0.87 0.87
0.74 0.69 0.68 0.68 0.68 0.67 0.69 0.67 0.68 0.68 0.64 0.65 0.68 0.66 0.72 0.79 0.86 0.92 0.88 0.92 0.92 0.75 0.71 0.77 0.82 0.96 1.27 1.27 1.22 0.86 0.91 0.94 0.85 0.85 0.70 0.62 0.46 0.54 0.45 0.49 0.52 0.61 0.65 0.55 0.56 0.70 0.75 0.83 0.89 0.92 0.92 0.89 0.98 1.01
0.70 0.68 0.66 0.65 0.64 0.66 0.70 0.68 0.66 0.69 0.67 0.66 0.70 0.68 0.67 0.77 0.87 0.93 0.89 0.92 0.88 0.79 0.59 0.70 1.08 0.97 1.29 1.29 1.22 1.17 1.11 1.07 0.97 0.88 0.70 0.66 0.54 0.64 0.54 0.59 0.57 0.64 0.67 0.66 0.70 0.82 0.86 0.92 0.94 0.95 0.93 0.94 1.00 1.05
0.69 0.67 0.66 0.66 0.67 0.68 0.70 0.69 0.66 0.67 0.68 0.69 0.71 0.71 0.68 0.72 0.84 0.92 0.97 1.03 0.96 0.76 0.60 0.63 0.89 1.00 1.22 1.22 1.19 1.22 1.17 1.06 0.91 0.76 0.66 0.64 0.71 0.67 0.68 0.67 0.65 0.76 0.70 0.66 0.68 0.89 0.88 0.90 0.97 0.99 0.90 1.00 1.12 1.09
0.67 0.68 0.68 0.69 0.69 0.70 0.69 0.69 0.69 0.70 0.72 0.71 0.72 0.72 0.67 0.71 0.77 0.83 0.81 1.01 1.02 0.91 0.76 0.63 0.99 1.01 1.17 1.19 1.21 1.16 1.18 1.11 1.02 0.87 0.76 0.76 0.84 0.74 0.62 0.63 0.84 0.87 0.90 0.93 0.89 1.03 1.01 0.98 1.00 0.99 0.92 1.11 1.18 1.19
0.68 0.68 0.67 0.68 0.71 0.73 0.73 0.73 0.72 0.71 0.70 0.72 0.72 0.70 0.66 0.66 0.73 0.71 0.80 1.00 0.99 0.95 0.81 0.74 0.80 0.96 1.01 1.07 1.12 1.08 1.15 1.11 1.05 0.96 0.87 0.81 0.76 0.78 0.69 0.62 0.84 0.91 0.92 0.94 0.99 0.97 0.85 0.90 0.92 1.09 1.05 1.12 1.20 1.17
0.68 0.66 0.65 0.69 0.71 0.73 0.74 0.72 0.68 0.66 0.66 0.69 0.68 0.65 0.62 0.65 0.73 0.76 1.02 1.13 1.04 0.89 0.90 0.76 0.76 0.83 1.00 0.90 0.92 1.03 0.96 1.07 1.01 0.96 0.93 0.84 0.83 0.80 0.64 0.79 0.88 0.91 0.91 0.91 0.94 0.98 0.98 1.03 1.10 1.13 1.18 1.17 1.08 1.09
0.68 0.68 0.67 0.69 0.73 0.73 0.70 0.66 0.66 0.65 0.67 0.69 0.66 0.62 0.60 0.62 0.71 0.88 1.12 1.14 1.06 0.94 0.78 0.81 0.72 0.69 1.06 0.98 0.96 0.91 0.93 0.85 1.02 0.88 0.82 0.85 0.79 0.67 0.76 0.79 0.83 0.87 0.85 0.91 1.02 1.02 0.98 0.99 1.07 1.12 1.10 1.08 0.98 0.99
0.70 0.72 0.72 0.72 0.70 0.69 0.65 0.64 0.64 0.65 0.68 0.67 0.59 0.56 0.55 0.78 1.04 1.08 1.02 0.86 0.82 0.87 0.89 0.75 0.93 0.80 0.98 0.95 0.84 0.78 0.80 0.72 0.70 0.78 0.83 0.69 0.64 0.76 0.86 0.89 0.87 0.89 0.91 0.96 0.87 0.88 0.94 0.96 1.02 1.05 1.12 1.20 1.15 1.07
0.70 0.71 0.72 0.69 0.68 0.66 0.66 0.65 0.64 0.70 0.73 0.59 0.58 0.61 0.91 1.10 0.96 0.86 0.77 0.70 0.75 0.69 0.78 0.80 0.86 0.79 1.04 0.85 0.81 0.81 0.70 0.67 0.55 0.60 0.55 0.52 0.52 0.69 0.85 0.82 0.91 0.96 0.96 0.94 0.98 1.04 1.06 1.04 1.05 1.08 1.11 1.15 1.11 1.12
0.71 0.70 0.68 0.68 0.71 0.72 0.70 0.69 0.70 0.67 0.63 0.65 0.72 0.88 0.95 0.84 0.77 0.69 0.66 0.70 0.66 0.59 0.73 0.69 0.82 0.94 1.03 1.19 0.97 0.90 0.65 0.66 0.47 0.64 0.48 0.42 0.56 0.75 0.92 0.96 1.01 1.06 1.06 1.07 1.13 1.07 1.07 1.08 1.11 1.09 1.08 1.09 1.10 1.10
0.71 0.69 0.68 0.68 0.69 0.71 0.70 0.71 0.72 0.71 0.72 0.78 0.79 0.74 0.71 0.71 0.58 0.57 0.51 0.55 0.55 0.66 0.73 0.75 0.73 0.87 1.02 1.02 0.93 0.86 0.63 0.60 0.77 0.56 0.45 0.49 0.68 0.91 1.00 1.05 1.06 1.15 1.17 1.15 1.12 1.12 1.10 1.08 1.14 1.12 1.08 1.13 1.12 1.10
0.73 0.72 0.70 0.67 0.69 0.71 0.68 0.68 0.68 0.68 0.74 0.69 0.63 0.54 0.59 0.57 0.63 0.67 0.65 0.63 0.76 0.78 0.81 0.80 0.74 0.78 0.93 0.87 0.87 0.73 0.74 0.75 0.58 0.48 0.48 0.68 0.87 0.97 1.08 1.14 1.11 1.11 1.19 1.15 1.10 1.10 1.08 1.07 1.07 1.10 1.09 1.08 1.05 1.02
0.72 0.72 0.69 0.66 0.70 0.69 0.68 0.68 0.68 0.76 0.77 0.66 0.66 0.54 0.60 0.72 0.77 0.80 0.83 0.82 0.88 0.96 0.89 0.80 0.81 0.79 0.76 0.79 0.84 0.80 0.71 0.61 0.64 0.61 0.74 0.89 1.00 1.06 1.10 1.17 1.16 1.36 1.24 1.18 1.14 1.08 1.07 1.07 1.03 0.98 1.01 1.02 1.01 1.02
0.72 0.70 0.68 0.71 0.70 0.68 0.67 0.69 0.76 0.83 0.80 0.72 0.70 0.65 0.73 0.74 0.77 0.82 0.83 0.82 0.93 0.90 0.99 1.10 0.78 0.70 0.72 0.80 0.73 0.71 0.69 0.57 0.66 0.85 1.02 1.11 1.13 1.11 1.14 1.07 1.09 1.23 1.22 1.15 1.08 1.05 1.04 1.00 0.95 0.94 1.01 1.01 1.01 1.01
0.69 0.66 0.73 0.69 0.67 0.67 0.69 0.73 0.81 0.74 0.71 0.70 0.68 0.81 0.79 0.80 0.79 0.85 0.89 0.92 1.01 0.88 0.74 0.84 0.75 0.72 0.93 0.77 0.69 0.77 0.71 0.81 0.99 1.05 1.13 1.30 1.26 1.25 1.20 1.20 1.21 1.16 1.07 1.01 1.00 0.98 0.94 0.96 0.98 0.96 0.93 0.95 0.92 0.88
0.64 0.72 0.71 0.68 0.67 0.71 0.74 0.73 0.74 0.72 0.65 0.72 0.70 0.79 0.86 0.89 0.89 0.96 1.02 0.96 0.91 0.82 0.82 0.79 0.89 0.79 0.71 0.68 0.74 0.83 0.88 1.01 1.14 1.17 1.20 1.25 1.33 1.31 1.29 1.14 1.07 1.03 0.99 0.97 0.94 0.95 0.97 0.93 0.88 0.82 0.80 0.80 0.75 0.72
0.62 0.62 0.64 0.68 0.73 0.72 0.71 0.76 0.80 0.64 0.69 0.76 0.80 0.85 0.88 0.91 1.01 1.04 1.07 1.10 1.06 1.02 0.87 0.82 0.79 0.77 0.80 0.90 0.90 0.91 1.01 1.04 1.05 1.15 1.25 1.35 1.33 1.25 1.19 1.10 1.04 0.98 0.98 0.98 0.96 0.93 0.90 0.86 0.81 0.79 0.74 0.70 0.63 0.60
0.72 0.71 0.71 0.77 0.82 0.76 0.71 0.73 0.86 0.70 0.65 0.74 0.84 0.79 0.84 0.89 1.02 1.06 1.06 1.05 0.98 0.91 0.81 0.77 0.84 0.90 0.98 1.05 1.09 1.11 1.20 1.21 1.17 1.16 1.18 1.23 1.23 1.14 1.08 1.04 0.98 1.01 1.00 1.00 0.98 0.98 0.96 0.90 0.88 0.81 0.76 0.71 0.63 0.57
0.77 0.82 0.87 0.89 0.88 0.84 0.79 0.76 0.75 0.77 0.76 0.74 0.81 0.85 0.84 0.97 0.98 0.93 0.93 1.00 0.90 0.89 0.86 1.01 1.05 1.12 1.21 1.23 1.24 1.26 1.29 1.22 1.17 1.13 1.06 1.03 1.11 1.09 1.05 1.06 1.06 1.05 0.98 0.92 0.89 0.83 0.80 0.75 0.75 0.73 0.67 0.59 0.53 0.52
0.83 0.91 0.86 0.92 0.79 0.80 0.76 0.84 0.78 0.81 0.78 0.76 0.81 0.86 0.82 0.86 0.88 0.91 0.98 0.89 0.87 0.92 1.01 1.06 1.11 1.17 1.16 1.12 1.22 1.32 1.31 1.30 1.26 1.20 1.15 1.10 1.01 1.01 0.99 1.00 0.97 0.93 0.94 0.89 0.83 0.80 0.76 0.73 0.66 0.57 0.50 0.48 0.48 0.45
0.99 0.99 0.91 0.89 0.77 0.76 0.71 0.88 0.71 0.76 0.67 0.72 0.80 0.75 0.77 0.85 0.91 0.99 0.85 0.91 0.96 1.08 1.12 1.14 1.18 1.24 1.22 1.27 1.29 1.27 1.29 1.22 1.16 1.13 1.09 1.09 1.07 1.08 1.02 1.00 1.00 0.96 0.95 0.84 0.79 0.73 0.65 0.57 0.51 0.49 0.49 0.47 0.44 0.43
1.03 0.87 0.79 0.76 0.77 0.69 0.81 0.73 0.80 0.75 0.78 0.73 0.72 0.71 0.77 0.82 0.90 0.82 0.77 0.86 0.98 1.09 1.10 1.15 1.19 1.18 1.19 1.18 1.17 1.16 1.18 1.20 1.16 1.15 1.16 1.09 1.00 0.98 1.00 0.96 0.98 0.98 0.83 0.74 0.66 0.61 0.57 0.52 0.48 0.45 0.46 0.43 0.43 0.42
0.72 0.72 0.77 0.70 0.80 0.74 0.71 0.73 0.74 0.74 0.68 0.75 0.74 0.73 0.76 0.84 0.72 0.73 0.75 0.88 0.98 1.02 1.05 1.09 1.12 1.13 1.12 1.12 1.14 1.15 1.22 1.18 1.11 1.04 1.07 1.04 1.01 1.00 0.98 1.00 0.92 0.87 0.72 0.64 0.59 0.55 0.51 0.45 0.42 0.43 0.42 0.39 0.39 0.40
0.61 0.72 0.71 0.70 0.71 0.70 0.71 0.67 0.69 0.71 0.73 0.71 0.73 0.77 0.81 0.74 0.69 0.69 0.81 0.95 0.99 1.01 1.03 1.03 1.03 1.05 1.07 1.11 1.07 1.07 1.11 1.14 1.07 0.99 0.97 0.97 0.97 0.96 0.88 0.72 0.65 0.65 0.72 0.66 0.59 0.52 0.46 0.42 0.41 0.39 0.38 0.41 0.40 0.41
0.61 0.66 0.76 0.85 0.79 0.80 0.75 0.79 0.84 0.79 0.73 0.69 0.72 0.73 0.73 0.64 0.67 0.78 0.94 1.05 1.03 1.10 1.13 1.15 1.14 1.11 1.10 1.11 1.15 1.16 1.17 1.06 0.95 0.91 0.91 0.88 0.90 0.91 0.83 0.70 0.65 0.64 0.61 0.56 0.52 0.46 0.40 0.37 0.38 0.38 0.39 0.42 0.44 0.44
0.74 0.74 0.66 0.71 0.73 0.79 0.74 0.75 0.72 0.72 0.76 0.86 0.86 0.75 0.71 0.71 0.71 0.83 0.91 1.00 1.05 1.12 1.15 1.17 1.19 1.19 1.16 1.13 1.12 1.10 1.09 1.08 1.04 0.94 0.83 0.78 0.71 0.68 0.68 0.67 0.65 0.61 0.56 0.49 0.39 0.38 0.38 0.40 0.40 0.41 0.43 0.43 0.42 0.44
0.73 0.77 0.76 0.70 0.74 0.76 0.75 0.76 0.77 0.83 0.90 0.89 0.79 0.74 0.77 0.86 0.87 0.87 0.92 0.96 1.02 1.00 0.97 0.95 0.91 0.97 0.96 0.94 0.94 0.97 0.98 0.94 0.78 0.67 0.57 0.52 0.50 0.50 0.53 0.49 0.44 0.45 0.42 0.36 0.35 0.36 0.37 0.39 0.40 0.44 0.46 0.46 0.47 0.49
0.72 0.82 0.73 0.72 0.68 0.67 0.75 0.83 0.82 0.89 0.92 0.92 0.91 0.90 0.87 0.85 0.90 0.93 0.89 0.87 0.82 0.77 0.79 0.82 0.82 0.79 0.76 0.75 0.72 0.70 0.72 0.69 0.64 0.54 0.51 0.49 0.50 0.51 0.49 0.44 0.37 0.36 0.37 0.38 0.42 0.43 0.47 0.49 0.51 0.51 0.48 0.48 0.50 0.51
0.79 0.77 0.73 0.73 0.71 0.76 0.83 0.88 0.89 0.89 0.88 0.85 0.88 0.80 0.75 0.78 0.83 0.86 0.84 0.83 0.82 0.78 0.72 0.70 0.72 0.73 0.71 0.69 0.66 0.62 0.59 0.63 0.58 0.53 0.53 0.54 0.54 0.50 0.46 0.42 0.41 0.41 0.43 0.44 0.42 0.43 0.46 0.50 0.52 0.51 0.50 0.51 0.54 0.56
0.76 0.70 0.69 0.66 0.70 0.80 0.83 0.80 0.79 0.78 0.80 0.77 0.76 0.80 0.79 0.75 0.68 0.74 0.81 0.78 0.72 0.64 0.64 0.63 0.60 0.60 0.63 0.61 0.59 0.58 0.57 0.54 0.53 0.52 0.51 0.50 0.48 0.46 0.43 0.38 0.37 0.39 0.42 0.44 0.45 0.47 0.50 0.52 0.53 0.54 0.55 0.54 0.54 0.54
0.73 0.75 0.75 0.72 0.70 0.68 0.74 0.74 0.73 0.73 0.76 0.74 0.75 0.77 0.75 0.73 0.64 0.69 0.78 0.77 0.70 0.67 0.65 0.66 0.62 0.58 0.56 0.55 0.55 0.56 0.56 0.55 0.54 0.52 0.49 0.43 0.36 0.36 0.37 0.38 0.42 0.46 0.46 0.46 0.49 0.53 0.55 0.57 0.58 0.59 0.58 0.57 0.56 0.56

GFSWCAN_prec_pwat_279.txt.gz
Precipitable_Water
0.93 0.86 0.79 0.78 0.74 0.72 0.72 0.71 0.70 0.66 0.63 0.62 0.63 0.67 0.69 0.72 0.76 0.79 0.72 0.81 0.69 0.57 0.62 0.66 0.81 0.81 0.88 0.80 0.66 0.74 0.66 0.69 0.53 0.33 0.30 0.29 0.35 0.43 0.44 0.43 0.38 0.36 0.33 0.33 0.35 0.32 0.29 0.63 0.63 0.49 0.62 0.82 0.85 0.87
0.81 0.77 0.76 0.71 0.69 0.70 0.70 0.70 0.67 0.66 0.65 0.62 0.63 0.65 0.65 0.71 0.74 0.78 0.68 0.84 0.79 0.62 0.62 0.76 0.79 0.93 1.03 0.96 0.88 0.87 0.79 0.78 0.76 0.58 0.48 0.39 0.38 0.45 0.43 0.39 0.54 0.40 0.44 0.40 0.43 0.42 0.64 0.73 0.69 0.81 0.86 0.84 0.87 0.93
0.81 0.76 0.68 0.67 0.68 0.66 0.66 0.67 0.69 0.65 0.69 0.65 0.62 0.65 0.65 0.67 0.74 0.76 0.74 0.80 0.75 0.63 0.60 0.65 0.56 0.80 1.03 0.99 1.12 0.87 0.92 0.97 0.85 0.85 0.69 0.55 0.41 0.49 0.39 0.44 0.52 0.59 0.63 0.53 0.55 0.69 0.72 0.79 0.86 0.87 0.90 0.94 1.04 1.05
0.77 0.71 0.70 0.67 0.65 0.65 0.65 0.67 0.70 0.65 0.65 0.66 0.64 0.65 0.66 0.66 0.71 0.76 0.72 0.83 0.77 0.66 0.51 0.57 0.81 0.81 1.06 1.10 1.17 1.20 1.08 1.06 1.00 0.90 0.73 0.59 0.48 0.59 0.47 0.51 0.54 0.62 0.67 0.64 0.66 0.78 0.82 0.86 0.90 0.93 1.01 1.10 1.12 1.16
0.70 0.67 0.66 0.67 0.67 0.68 0.67 0.68 0.70 0.67 0.66 0.65 0.66 0.65 0.67 0.66 0.68 0.73 0.75 0.87 0.92 0.70 0.53 0.60 0.68 0.82 1.00 1.05 1.15 1.22 1.15 1.05 0.95 0.80 0.68 0.56 0.63 0.60 0.62 0.62 0.56 0.71 0.64 0.57 0.58 0.78 0.77 0.82 0.92 1.04 1.07 1.10 1.14 1.07
0.67 0.68 0.68 0.68 0.69 0.70 0.69 0.69 0.70 0.69 0.67 0.68 0.68 0.68 0.69 0.67 0.71 0.62 0.67 0.87 0.92 0.83 0.65 0.56 0.80 0.83 0.97 1.04 1.06 1.13 1.19 1.13 1.00 0.83 0.72 0.73 0.76 0.66 0.56 0.56 0.72 0.80 0.83 0.83 0.76 0.93 0.91 0.95 1.02 1.11 1.08 1.16 1.19 1.09
0.69 0.69 0.67 0.67 0.67 0.70 0.72 0.73 0.73 0.72 0.68 0.67 0.66 0.65 0.68 0.68 0.64 0.56 0.67 0.86 0.94 0.96 0.75 0.63 0.65 0.91 1.01 1.07 1.08 1.09 1.21 1.13 1.05 0.87 0.77 0.75 0.72 0.71 0.65 0.58 0.78 0.83 0.88 0.92 0.97 0.93 0.88 0.97 1.00 1.17 1.19 1.22 1.17 1.17
0.69 0.68 0.68 0.67 0.67 0.71 0.73 0.73 0.70 0.66 0.64 0.64 0.64 0.66 0.68 0.66 0.62 0.56 0.77 0.92 1.04 0.89 0.84 0.64 0.72 0.80 1.05 0.88 0.90 1.17 1.08 1.10 1.00 0.89 0.88 0.78 0.75 0.73 0.62 0.81 0.86 0.91 0.94 0.95 0.94 0.95 0.96 1.08 1.16 1.19 1.22 1.18 1.08 1.01
0.69 0.70 0.70 0.68 0.71 0.72 0.71 0.70 0.66 0.64 0.63 0.63 0.66 0.68 0.64 0.55 0.48 0.59 0.91 1.03 1.10 0.91 0.69 0.71 0.68 0.65 1.02 0.89 0.93 1.05 1.09 0.93 1.10 0.90 0.83 0.82 0.73 0.62 0.76 0.84 0.85 0.88 0.85 0.91 0.99 1.02 1.06 1.05 1.10 1.11 1.09 1.05 0.99 1.02
0.70 0.70 0.73 0.74 0.73 0.70 0.67 0.63 0.63 0.63 0.63 0.68 0.65 0.53 0.45 0.60 0.80 0.87 0.84 0.80 0.80 0.81 0.77 0.69 0.89 0.77 0.91 0.89 0.83 0.88 1.02 0.90 0.80 0.92 0.94 0.77 0.74 0.86 0.91 0.93 0.94 0.96 0.98 0.98 0.88 0.88 0.96 0.94 0.98 1.04 1.07 1.13 1.09 1.09
0.71 0.72 0.74 0.73 0.70 0.69 0.69 0.67 0.66 0.67 0.74 0.63 0.53 0.53 0.78 0.95 0.87 0.79 0.69 0.67 0.71 0.63 0.71 0.77 0.89 0.88 1.11 0.81 0.80 0.95 0.82 0.82 0.71 0.79 0.83 0.75 0.71 0.83 0.99 1.01 1.07 1.07 1.07 1.01 0.97 0.96 0.99 0.97 1.00 1.09 1.11 1.12 1.10 1.13
0.74 0.72 0.71 0.71 0.69 0.71 0.71 0.70 0.69 0.67 0.64 0.62 0.65 0.72 0.80 0.77 0.71 0.63 0.61 0.73 0.65 0.53 0.68 0.71 0.87 1.00 1.05 1.12 0.93 0.94 0.79 0.76 0.60 0.84 0.74 0.72 0.76 0.88 0.92 1.00 1.10 1.11 1.06 1.02 1.04 0.99 1.04 1.06 1.10 1.10 1.07 1.05 1.07 1.11
0.73 0.73 0.72 0.70 0.68 0.70 0.71 0.68 0.72 0.72 0.70 0.74 0.71 0.68 0.68 0.66 0.54 0.53 0.52 0.58 0.56 0.67 0.72 0.80 0.79 0.92 1.03 1.07 0.96 0.86 0.71 0.70 0.85 0.63 0.57 0.63 0.84 0.92 0.89 0.99 1.05 1.10 1.08 1.06 1.06 1.09 1.10 1.07 1.09 1.08 1.06 1.10 1.12 1.11
0.74 0.73 0.73 0.70 0.68 0.70 0.71 0.69 0.68 0.66 0.65 0.59 0.57 0.51 0.55 0.53 0.58 0.63 0.63 0.65 0.72 0.76 0.79 0.79 0.77 0.81 0.91 0.86 0.88 0.76 0.77 0.79 0.62 0.53 0.54 0.69 0.83 0.88 0.95 1.03 1.06 1.05 1.08 1.08 1.07 1.09 1.09 1.08 1.05 1.10 1.11 1.14 1.11 1.05
0.72 0.71 0.71 0.68 0.70 0.72 0.70 0.68 0.68 0.71 0.74 0.63 0.63 0.51 0.57 0.68 0.74 0.75 0.80 0.78 0.84 0.92 0.89 0.80 0.79 0.81 0.80 0.80 0.88 0.82 0.69 0.57 0.61 0.61 0.71 0.83 0.96 0.99 1.02 1.07 1.11 1.12 1.10 1.09 1.11 1.10 1.11 1.12 1.10 1.09 1.10 1.06 1.01 0.99
0.68 0.69 0.70 0.73 0.71 0.70 0.68 0.70 0.75 0.79 0.77 0.69 0.68 0.61 0.68 0.67 0.70 0.76 0.79 0.80 0.93 0.93 0.96 0.89 0.76 0.69 0.69 0.73 0.66 0.65 0.63 0.58 0.65 0.84 0.95 0.98 1.00 1.05 1.09 1.10 1.12 1.17 1.14 1.13 1.20 1.19 1.15 1.08 1.02 0.98 0.96 0.95 0.97 0.99
0.70 0.66 0.75 0.70 0.69 0.67 0.74 0.77 0.82 0.73 0.68 0.68 0.66 0.77 0.77 0.75 0.74 0.78 0.83 0.87 1.03 0.91 0.78 0.83 0.69 0.65 0.78 0.65 0.61 0.71 0.68 0.80 0.91 0.99 1.06 1.08 1.09 1.15 1.21 1.23 1.20 1.14 1.13 1.15 1.17 1.13 1.04 1.00 0.94 0.89 0.87 0.93 0.94 0.91
0.60 0.66 0.66 0.67 0.72 0.79 0.81 0.81 0.74 0.70 0.64 0.72 0.68 0.75 0.85 0.87 0.85 0.86 0.91 0.97 0.93 0.88 0.85 0.77 0.92 0.72 0.62 0.60 0.68 0.83 0.91 1.06 1.10 1.12 1.16 1.19 1.23 1.25 1.25 1.23 1.23 1.18 1.12 1.06 1.03 0.99 0.94 0.91 0.89 0.87 0.84 0.81 0.78 0.76
0.62 0.65 0.68 0.73 0.79 0.77 0.75 0.80 0.81 0.65 0.69 0.76 0.83 0.90 0.91 0.93 0.99 1.00 0.99 1.00 1.01 1.03 0.94 0.88 0.75 0.69 0.75 0.89 0.91 0.94 1.02 1.10 1.09 1.16 1.22 1.29 1.33 1.31 1.29 1.26 1.17 1.08 0.98 0.95 0.93 0.91 0.88 0.82 0.76 0.75 0.71 0.66 0.60 0.59
0.74 0.77 0.82 0.85 0.85 0.76 0.72 0.75 0.90 0.74 0.67 0.77 0.86 0.85 0.90 0.95 1.03 1.02 0.98 0.95 0.92 0.88 0.80 0.78 0.80 0.89 0.93 1.02 1.10 1.14 1.15 1.18 1.15 1.10 1.17 1.29 1.36 1.30 1.22 1.11 1.00 0.97 0.93 0.92 0.90 0.86 0.82 0.79 0.77 0.74 0.71 0.64 0.59 0.57
0.84 0.86 0.89 0.89 0.85 0.82 0.78 0.77 0.77 0.79 0.79 0.75 0.83 0.87 0.89 0.99 0.93 0.90 0.91 0.97 0.84 0.79 0.77 0.89 0.95 1.07 1.20 1.19 1.23 1.29 1.25 1.27 1.20 1.19 1.14 1.14 1.23 1.20 1.09 1.03 1.00 0.99 0.95 0.93 0.89 0.87 0.87 0.81 0.80 0.75 0.71 0.67 0.61 0.57
0.92 0.99 0.90 0.92 0.80 0.83 0.78 0.85 0.78 0.83 0.79 0.80 0.84 0.90 0.83 0.83 0.84 0.87 0.95 0.83 0.82 0.89 0.94 0.98 1.03 1.09 1.17 1.15 1.21 1.32 1.31 1.31 1.30 1.28 1.23 1.16 1.03 1.00 0.99 0.99 0.98 0.93 0.89 0.88 0.85 0.80 0.80 0.81 0.76 0.66 0.59 0.52 0.51 0.49
0.99 0.97 0.91 0.88 0.76 0.75 0.69 0.88 0.73 0.76 0.68 0.73 0.80 0.74 0.78 0.82 0.89 1.00 0.83 0.91 0.95 1.08 1.11 1.13 1.17 1.20 1.21 1.30 1.33 1.34 1.34 1.28 1.21 1.15 1.10 1.07 1.06 1.06 1.03 0.99 0.93 0.88 0.85 0.81 0.80 0.76 0.70 0.60 0.53 0.50 0.51 0.49 0.47 0.44
1.07 0.89 0.79 0.75 0.74 0.65 0.77 0.70 0.78 0.74 0.77 0.72 0.71 0.68 0.77 0.83 0.92 0.84 0.78 0.87 1.00 1.10 1.09 1.14 1.19 1.16 1.21 1.24 1.22 1.25 1.28 1.28 1.19 1.14 1.11 1.05 1.01 1.00 1.01 0.99 0.98 0.92 0.85 0.77 0.69 0.62 0.58 0.56 0.54 0.49 0.47 0.45 0.43 0.43
0.75 0.73 0.77 0.68 0.79 0.71 0.67 0.67 0.69 0.71 0.66 0.74 0.73 0.72 0.77 0.88 0.76 0.77 0.78 0.89 1.00 1.04 1.08 1.15 1.17 1.16 1.16 1.14 1.16 1.18 1.23 1.21 1.12 1.07 1.10 1.09 1.02 1.01 0.98 0.97 0.96 0.86 0.77 0.67 0.62 0.57 0.52 0.50 0.48 0.47 0.45 0.42 0.41 0.43
0.63 0.72 0.71 0.70 0.69 0.69 0.69 0.64 0.69 0.71 0.72 0.70 0.71 0.78 0.82 0.76 0.71 0.71 0.82 0.94 1.00 1.03 1.06 1.10 1.12 1.11 1.12 1.16 1.14 1.14 1.15 1.20 1.14 1.05 1.05 1.05 1.01 0.96 0.90 0.83 0.76 0.71 0.70 0.66 0.61 0.56 0.50 0.43 0.43 0.42 0.40 0.41 0.42 0.41
0.63 0.65 0.77 0.90 0.83 0.82 0.77 0.81 0.84 0.78 0.70 0.66 0.70 0.72 0.72 0.65 0.68 0.80 0.95 1.04 1.03 1.09 1.12 1.15 1.16 1.16 1.12 1.11 1.10 1.06 1.05 0.98 0.92 0.93 0.98 0.99 0.99 0.97 0.81 0.77 0.70 0.72 0.70 0.62 0.58 0.49 0.42 0.39 0.40 0.40 0.40 0.41 0.42 0.43
0.74 0.78 0.69 0.77 0.79 0.84 0.76 0.75 0.73 0.71 0.74 0.83 0.83 0.72 0.67 0.69 0.70 0.87 0.96 1.08 1.14 1.15 1.17 1.21 1.21 1.18 1.16 1.10 1.04 1.03 0.98 0.95 0.90 0.87 0.85 0.86 0.89 0.82 0.77 0.71 0.69 0.67 0.65 0.60 0.54 0.44 0.40 0.38 0.39 0.39 0.41 0.41 0.42 0.43
0.72 0.81 0.80 0.72 0.76 0.80 0.79 0.76 0.77 0.85 0.91 0.87 0.77 0.73 0.75 0.85 0.91 0.91 0.96 1.03 1.15 1.12 1.09 1.08 1.13 1.16 1.14 1.14 1.11 1.08 1.05 0.97 0.85 0.77 0.70 0.64 0.58 0.57 0.59 0.56 0.54 0.54 0.52 0.49 0.44 0.37 0.37 0.39 0.40 0.40 0.43 0.45 0.45 0.46
0.73 0.83 0.74 0.74 0.69 0.68 0.77 0.88 0.84 0.90 0.93 0.93 0.91 0.86 0.82 0.85 0.90 0.96 0.92 0.93 0.91 0.85 0.85 0.90 0.91 0.87 0.85 0.87 0.87 0.91 0.97 0.96 0.79 0.59 0.51 0.49 0.51 0.52 0.52 0.47 0.41 0.39 0.37 0.35 0.34 0.41 0.43 0.42 0.44 0.48 0.49 0.50 0.50 0.51
0.79 0.78 0.73 0.73 0.70 0.78 0.84 0.90 0.92 0.89 0.88 0.85 0.86 0.77 0.75 0.79 0.82 0.87 0.84 0.83 0.82 0.80 0.77 0.75 0.75 0.76 0.72 0.68 0.65 0.62 0.59 0.65 0.65 0.64 0.60 0.55 0.53 0.51 0.48 0.45 0.41 0.38 0.39 0.41 0.41 0.42 0.45 0.46 0.48 0.49 0.51 0.52 0.53 0.53
0.74 0.72 0.70 0.65 0.68 0.79 0.85 0.80 0.79 0.76 0.77 0.75 0.73 0.76 0.74 0.70 0.65 0.72 0.79 0.77 0.72 0.69 0.70 0.70 0.68 0.66 0.71 0.71 0.70 0.67 0.63 0.60 0.56 0.55 0.52 0.52 0.51 0.50 0.46 0.41 0.38 0.38 0.39 0.41 0.41 0.42 0.43 0.46 0.49 0.51 0.52 0.56 0.57 0.57
0.73 0.74 0.74 0.71 0.68 0.69 0.75 0.75 0.72 0.71 0.74 0.72 0.72 0.73 0.72 0.69 0.62 0.69 0.79 0.79 0.71 0.67 0.67 0.67 0.66 0.63 0.61 0.62 0.62 0.60 0.58 0.54 0.53 0.52 0.51 0.49 0.46 0.42 0.37 0.37 0.39 0.40 0.40 0.43 0.45 0.47 0.49 0.53 0.55 0.58 0.59 0.60 0.61 0.61

GFSWCAN_prec_pwat_285.txt.gz
Precipitable_Water
0.98 0.97 0.91 0.88 0.86 0.79 0.76 0.75 0.73 0.72 0.74 0.71 0.68 0.65 0.65 0.65 0.68 0.67 0.63 0.74 0.59 0.44 0.44 0.58 0.68 0.60 0.62 0.67 0.59 0.67 0.58 0.57 0.58 0.45 0.39 0.33 0.32 0.36 0.35 0.37 0.33 0.29 0.29 0.30 0.32 0.28 0.24 0.57 0.64 0.46 0.53 0.69 0.72 0.80
0.96 0.94 0.90 0.88 0.86 0.76 0.73 0.72 0.72 0.71 0.72 0.70 0.70 0.68 0.65 0.67 0.64 0.67 0.56 0.72 0.73 0.53 0.48 0.57 0.60 0.73 0.70 0.71 0.72 0.75 0.68 0.60 0.64 0.55 0.54 0.49 0.37 0.39 0.37 0.30 0.43 0.33 0.36 0.32 0.33 0.31 0.48 0.60 0.60 0.69 0.73 0.71 0.80 0.81
0.92 0.93 0.93 0.89 0.83 0.78 0.72 0.69 0.69 0.69 0.71 0.68 0.65 0.68 0.65 0.66 0.66 0.64 0.60 0.64 0.62 0.48 0.43 0.45 0.39 0.58 0.73 0.70 0.83 0.68 0.77 0.86 0.75 0.81 0.67 0.59 0.42 0.44 0.35 0.36 0.42 0.48 0.52 0.41 0.41 0.49 0.55 0.62 0.70 0.78 0.82 0.80 0.87 0.87
0.96 0.95 0.92 0.88 0.82 0.75 0.72 0.71 0.70 0.69 0.71 0.71 0.68 0.68 0.66 0.65 0.65 0.65 0.56 0.64 0.61 0.53 0.36 0.38 0.61 0.53 0.70 0.78 0.73 0.84 0.90 1.02 0.94 0.83 0.71 0.61 0.48 0.55 0.42 0.46 0.43 0.50 0.57 0.51 0.52 0.60 0.67 0.73 0.78 0.83 0.90 0.94 0.91 0.96
0.93 0.88 0.81 0.78 0.73 0.70 0.71 0.73 0.72 0.70 0.70 0.70 0.71 0.71 0.70 0.67 0.65 0.62 0.58 0.62 0.66 0.52 0.38 0.39 0.51 0.54 0.61 0.62 0.64 0.78 0.89 0.91 0.85 0.80 0.72 0.61 0.64 0.55 0.54 0.53 0.46 0.53 0.49 0.44 0.42 0.61 0.62 0.70 0.90 0.98 0.93 0.92 0.97 0.93
0.71 0.67 0.65 0.66 0.67 0.68 0.68 0.69 0.72 0.72 0.69 0.72 0.71 0.68 0.66 0.63 0.60 0.51 0.39 0.63 0.69 0.64 0.49 0.32 0.52 0.51 0.59 0.66 0.62 0.67 0.86 0.98 0.96 0.91 0.82 0.78 0.80 0.62 0.51 0.44 0.54 0.58 0.65 0.66 0.56 0.75 0.76 0.87 1.02 1.06 0.97 1.02 1.04 1.04
0.65 0.66 0.66 0.67 0.68 0.68 0.68 0.68 0.73 0.75 0.75 0.75 0.70 0.64 0.62 0.61 0.56 0.42 0.42 0.62 0.75 0.75 0.53 0.39 0.39 0.59 0.70 0.63 0.68 0.71 0.95 0.99 0.99 0.98 0.88 0.82 0.76 0.73 0.60 0.43 0.53 0.58 0.67 0.71 0.79 0.83 0.83 0.93 0.90 1.08 1.08 1.07 1.11 1.11
0.67 0.68 0.69 0.70 0.70 0.69 0.71 0.74 0.73 0.70 0.66 0.65 0.64 0.63 0.63 0.63 0.61 0.49 0.54 0.68 0.78 0.64 0.61 0.41 0.40 0.50 0.73 0.57 0.58 0.85 0.87 0.98 0.96 0.95 0.97 0.84 0.82 0.74 0.55 0.61 0.61 0.63 0.69 0.74 0.81 0.86 0.91 1.02 1.07 1.08 1.10 1.10 1.01 1.00
0.69 0.71 0.71 0.72 0.74 0.74 0.74 0.73 0.68 0.64 0.63 0.64 0.63 0.62 0.59 0.54 0.44 0.46 0.63 0.76 0.78 0.68 0.52 0.48 0.38 0.37 0.76 0.62 0.71 0.80 0.87 0.71 0.94 0.84 0.88 0.86 0.80 0.64 0.66 0.65 0.64 0.68 0.66 0.71 0.86 0.94 0.97 0.96 1.02 1.06 1.07 1.05 1.00 0.96
0.71 0.73 0.74 0.75 0.78 0.77 0.73 0.70 0.67 0.67 0.67 0.67 0.63 0.49 0.39 0.47 0.67 0.81 0.67 0.54 0.59 0.66 0.62 0.44 0.55 0.46 0.68 0.65 0.62 0.66 0.77 0.71 0.66 0.84 0.98 0.79 0.73 0.83 0.86 0.89 0.88 0.84 0.87 0.93 0.86 0.89 0.97 0.95 0.96 1.01 1.03 1.11 1.09 1.06
0.73 0.74 0.74 0.75 0.75 0.73 0.72 0.72 0.72 0.70 0.68 0.60 0.48 0.44 0.64 0.82 0.73 0.63 0.49 0.45 0.48 0.43 0.46 0.45 0.49 0.47 0.69 0.64 0.60 0.70 0.68 0.78 0.60 0.79 0.77 0.70 0.65 0.81 0.96 0.98 1.04 1.04 1.05 1.05 1.01 0.98 0.98 0.95 0.98 1.04 1.09 1.14 1.16 1.14
0.73 0.73 0.72 0.72 0.71 0.71 0.71 0.72 0.71 0.65 0.59 0.58 0.60 0.69 0.72 0.67 0.62 0.51 0.43 0.51 0.46 0.40 0.46 0.43 0.42 0.47 0.59 0.90 0.67 0.68 0.67 0.72 0.59 0.91 0.73 0.62 0.71 0.92 1.00 1.06 1.12 1.14 1.05 0.98 0.98 0.96 1.04 1.07 1.12 1.13 1.16 1.17 1.18 1.13
0.69 0.70 0.73 0.73 0.72 0.69 0.68 0.70 0.69 0.67 0.68 0.68 0.61 0.54 0.51 0.50 0.40 0.39 0.35 0.38 0.43 0.60 0.67 0.67 0.56 0.60 0.71 0.88 0.73 0.66 0.54 0.55 0.78 0.68 0.64 0.69 0.86 1.01 1.08 1.17 1.14 1.16 1.11 1.06 1.01 1.06 1.07 1.13 1.20 1.22 1.20 1.22 1.17 1.12
0.64 0.65 0.70 0.69 0.70 0.69 0.71 0.72 0.71 0.69 0.60 0.51 0.50 0.42 0.44 0.43 0.45 0.48 0.50 0.55 0.66 0.68 0.70 0.79 0.77 0.72 0.93 0.75 0.86 0.58 0.66 0.71 0.65 0.67 0.60 0.75 0.87 1.04 1.14 1.20 1.15 1.13 1.14 1.09 1.09 1.12 1.13 1.18 1.22 1.23 1.20 1.18 1.14 1.08
0.64 0.66 0.70 0.72 0.73 0.73 0.73 0.69 0.68 0.64 0.56 0.50 0.53 0.42 0.48 0.60 0.65 0.68 0.71 0.70 0.74 0.78 0.79 0.80 0.84 0.82 0.78 0.80 0.82 0.77 0.70 0.61 0.63 0.59 0.66 0.80 0.93 1.03 1.11 1.15 1.18 1.19 1.20 1.15 1.17 1.15 1.12 1.12 1.11 1.11 1.16 1.18 1.15 1.13
0.66 0.69 0.72 0.76 0.72 0.72 0.69 0.70 0.70 0.69 0.66 0.62 0.62 0.56 0.64 0.61 0.63 0.69 0.72 0.73 0.87 0.89 0.90 0.92 0.79 0.69 0.70 0.75 0.70 0.67 0.65 0.56 0.63 0.80 0.82 0.87 0.94 0.99 1.07 1.18 1.26 1.29 1.30 1.20 1.15 1.08 1.07 1.09 1.10 1.13 1.19 1.20 1.20 1.12
0.65 0.63 0.78 0.76 0.80 0.84 0.85 0.76 0.76 0.70 0.65 0.62 0.60 0.71 0.69 0.67 0.69 0.74 0.80 0.83 0.98 0.87 0.69 0.79 0.65 0.62 0.78 0.71 0.70 0.78 0.70 0.81 0.90 0.94 0.95 0.99 0.99 1.02 1.13 1.13 1.18 1.27 1.27 1.22 1.14 1.15 1.15 1.19 1.21 1.17 1.10 1.14 1.11 1.03
0.67 0.76 0.84 0.89 0.91 0.87 0.87 0.83 0.75 0.69 0.62 0.67 0.63 0.68 0.73 0.74 0.74 0.82 0.89 0.99 0.95 0.88 0.85 0.76 0.89 0.70 0.66 0.68 0.73 0.85 0.94 1.04 1.06 1.03 1.04 1.02 1.09 1.16 1.20 1.24 1.26 1.28 1.27 1.27 1.28 1.21 1.17 1.16 1.12 1.11 1.11 1.04 0.94 0.92
0.78 0.83 0.88 0.94 0.95 0.84 0.77 0.79 0.80 0.64 0.68 0.73 0.76 0.78 0.80 0.80 0.91 0.96 0.96 1.00 1.03 1.02 0.92 0.85 0.75 0.71 0.75 0.90 0.91 0.96 1.05 1.05 1.01 1.09 1.11 1.12 1.13 1.16 1.22 1.31 1.30 1.29 1.31 1.23 1.15 1.14 1.13 1.12 1.06 0.98 0.92 0.87 0.80 0.77
0.91 0.93 0.97 1.00 0.98 0.80 0.73 0.77 0.90 0.75 0.69 0.76 0.85 0.82 0.83 0.84 0.96 0.98 0.98 0.97 0.97 0.94 0.85 0.81 0.81 0.90 0.96 1.06 1.09 1.07 1.12 1.17 1.10 1.02 1.01 1.09 1.20 1.21 1.23 1.24 1.22 1.21 1.17 1.16 1.13 1.11 1.04 0.93 0.87 0.84 0.79 0.73 0.66 0.62
0.89 0.94 0.97 0.96 0.89 0.85 0.78 0.77 0.78 0.81 0.82 0.78 0.87 0.87 0.85 0.90 0.89 0.87 0.90 0.99 0.89 0.84 0.81 0.91 0.97 1.02 1.13 1.21 1.23 1.25 1.19 1.19 1.12 1.11 1.07 1.10 1.22 1.25 1.26 1.28 1.25 1.20 1.16 1.11 1.03 0.94 0.83 0.78 0.76 0.71 0.65 0.63 0.63 0.61
0.90 1.01 0.95 0.97 0.82 0.83 0.78 0.87 0.81 0.88 0.83 0.82 0.84 0.86 0.78 0.77 0.79 0.83 0.96 0.89 0.85 0.92 1.00 1.01 1.05 1.09 1.14 1.18 1.22 1.29 1.29 1.29 1.28 1.26 1.26 1.25 1.17 1.20 1.23 1.25 1.20 1.13 1.06 0.96 0.84 0.77 0.75 0.74 0.73 0.71 0.68 0.65 0.62 0.58
1.00 0.99 0.91 0.88 0.75 0.74 0.70 0.90 0.77 0.81 0.72 0.76 0.82 0.73 0.73 0.77 0.83 0.93 0.79 0.85 0.90 1.05 1.11 1.11 1.17 1.22 1.21 1.27 1.30 1.30 1.33 1.29 1.23 1.20 1.19 1.24 1.30 1.29 1.24 1.15 1.07 0.97 0.89 0.86 0.84 0.79 0.77 0.77 0.73 0.67 0.64 0.58 0.53 0.50
1.02 0.86 0.75 0.73 0.73 0.66 0.78 0.72 0.82 0.80 0.80 0.76 0.74 0.69 0.74 0.78 0.88 0.80 0.74 0.82 0.94 1.08 1.10 1.14 1.18 1.17 1.21 1.24 1.22 1.24 1.30 1.30 1.21 1.22 1.22 1.14 1.05 1.05 1.06 1.03 1.00 0.95 0.92 0.90 0.87 0.82 0.74 0.66 0.60 0.55 0.51 0.49 0.49 0.48
0.70 0.68 0.75 0.64 0.75 0.67 0.66 0.70 0.75 0.75 0.70 0.75 0.73 0.71 0.76 0.86 0.72 0.72 0.71 0.81 0.94 1.01 1.09 1.17 1.18 1.18 1.13 1.15 1.23 1.27 1.36 1.26 1.11 1.03 1.07 1.06 1.00 0.99 0.96 0.94 0.90 0.85 0.79 0.70 0.67 0.66 0.63 0.60 0.54 0.51 0.50 0.49 0.48 0.47
0.58 0.69 0.68 0.67 0.68 0.67 0.69 0.67 0.70 0.72 0.74 0.73 0.75 0.82 0.86 0.79 0.72 0.70 0.81 0.93 1.01 1.07 1.11 1.12 1.14 1.16 1.17 1.21 1.13 1.17 1.18 1.20 1.13 1.03 1.04 1.03 0.97 0.89 0.84 0.80 0.76 0.72 0.74 0.68 0.60 0.55 0.52 0.50 0.49 0.51 0.49 0.47 0.48 0.46
0.60 0.65 0.76 0.89 0.84 0.83 0.78 0.82 0.85 0.78 0.74 0.73 0.79 0.80 0.78 0.67 0.69 0.82 0.99 1.07 1.09 1.17 1.23 1.26 1.23 1.17 1.15 1.20 1.20 1.19 1.20 1.20 1.13 1.09 1.10 1.05 1.01 0.97 0.88 0.75 0.69 0.68 0.69 0.63 0.56 0.53 0.51 0.49 0.46 0.46 0.45 0.46 0.45 0.45
0.73 0.78 0.70 0.78 0.81 0.87 0.75 0.77 0.75 0.73 0.77 0.86 0.85 0.73 0.70 0.72 0.75 0.95 1.06 1.13 1.19 1.26 1.24 1.29 1.31 1.26 1.20 1.18 1.14 1.11 1.12 1.10 1.07 1.05 1.01 0.97 0.94 0.93 0.91 0.88 0.86 0.77 0.70 0.66 0.59 0.50 0.46 0.44 0.44 0.44 0.44 0.43 0.43 0.45
0.75 0.82 0.83 0.73 0.78 0.78 0.77 0.75 0.75 0.82 0.91 0.88 0.79 0.76 0.79 0.92 1.02 1.04 1.11 1.17 1.21 1.18 1.11 1.09 1.11 1.16 1.11 1.10 1.08 1.08 1.04 0.99 0.92 0.85 0.81 0.80 0.75 0.73 0.77 0.75 0.73 0.70 0.64 0.59 0.57 0.53 0.45 0.43 0.43 0.44 0.44 0.43 0.44 0.45
0.76 0.86 0.74 0.73 0.71 0.70 0.79 0.85 0.82 0.90 0.93 0.92 0.90 0.88 0.89 0.92 1.02 1.16 1.17 1.17 1.13 1.02 1.05 1.02 0.98 0.93 0.92 0.94 0.92 0.93 0.95 0.91 0.88 0.82 0.70 0.64 0.61 0.56 0.51 0.49 0.51 0.55 0.55 0.52 0.48 0.45 0.40 0.39 0.41 0.42 0.41 0.45 0.48 0.50
0.82 0.79 0.73 0.72 0.70 0.78 0.83 0.90 0.91 0.90 0.84 0.82 0.84 0.79 0.79 0.85 0.94 0.98 0.95 1.07 1.14 1.12 1.06 0.99 0.96 0.97 0.96 0.94 0.93 0.91 0.89 0.93 0.80 0.67 0.59 0.57 0.56 0.54 0.52 0.49 0.46 0.44 0.43 0.40 0.36 0.36 0.39 0.39 0.40 0.40 0.44 0.49 0.52 0.54
0.76 0.71 0.69 0.67 0.71 0.81 0.85 0.81 0.79 0.76 0.75 0.71 0.68 0.69 0.67 0.67 0.63 0.70 0.82 0.83 0.80 0.76 0.81 0.85 0.86 0.86 0.92 0.93 0.91 0.87 0.78 0.70 0.67 0.65 0.62 0.59 0.57 0.55 0.52 0.50 0.46 0.41 0.36 0.35 0.37 0.41 0.44 0.45 0.47 0.48 0.50 0.52 0.54 0.56
0.72 0.74 0.73 0.70 0.69 0.70 0.76 0.76 0.72 0.68 0.69 0.67 0.68 0.67 0.65 0.63 0.58 0.67 0.77 0.77 0.71 0.70 0.70 0.72 0.73 0.73 0.71 0.69 0.67 0.67 0.67 0.68 0.66 0.58 0.56 0.54 0.52 0.51 0.49 0.46 0.41 0.36 0.35 0.37 0.40 0.43 0.43 0.44 0.45 0.49 0.52 0.55 0.58 0.60

GFSWCAN_prec_pwat_288.txt.gz
Precipitable_Water
0.98 0.97 0.93 0.89 0.88 0.86 0.82 0.79 0.76 0.77 0.74 0.75 0.73 0.72 0.68 0.68 0.65 0.64 0.62 0.71 0.58 0.44 0.47 0.60 0.70 0.62 0.68 0.68 0.58 0.64 0.53 0.58 0.55 0.43 0.39 0.38 0.34 0.35 0.37 0.37 0.34 0.31 0.30 0.31 0.35 0.31 0.31 0.60 0.58 0.40 0.58 0.64 0.64 0.70
0.94 0.91 0.94 0.91 0.92 0.90 0.84 0.77 0.74 0.75 0.74 0.75 0.73 0.76 0.68 0.67 0.66 0.65 0.56 0.70 0.69 0.52 0.49 0.55 0.60 0.73 0.70 0.75 0.70 0.72 0.65 0.64 0.67 0.57 0.56 0.58 0.40 0.44 0.35 0.33 0.47 0.34 0.34 0.36 0.36 0.37 0.55 0.55 0.50 0.63 0.66 0.66 0.73 0.78
0.96 0.96 0.96 0.94 0.92 0.89 0.85 0.78 0.76 0.74 0.71 0.75 0.71 0.70 0.69 0.66 0.66 0.62 0.58 0.62 0.60 0.47 0.41 0.41 0.38 0.53 0.70 0.71 0.77 0.64 0.72 0.80 0.74 0.77 0.66 0.60 0.46 0.49 0.36 0.37 0.42 0.45 0.51 0.43 0.41 0.48 0.52 0.58 0.69 0.69 0.71 0.75 0.82 0.84
0.90 0.88 0.85 0.80 0.78 0.77 0.78 0.77 0.76 0.74 0.73 0.75 0.72 0.70 0.69 0.66 0.65 0.62 0.55 0.60 0.56 0.49 0.34 0.40 0.57 0.50 0.62 0.71 0.70 0.71 0.81 0.92 0.88 0.75 0.65 0.62 0.52 0.59 0.47 0.52 0.45 0.53 0.50 0.51 0.55 0.59 0.61 0.70 0.73 0.75 0.82 0.90 0.88 0.89
0.76 0.72 0.68 0.66 0.65 0.65 0.66 0.68 0.71 0.75 0.73 0.74 0.73 0.73 0.72 0.70 0.65 0.62 0.59 0.57 0.61 0.48 0.39 0.40 0.47 0.47 0.50 0.55 0.65 0.69 0.73 0.80 0.79 0.69 0.66 0.58 0.69 0.61 0.55 0.55 0.47 0.56 0.51 0.45 0.42 0.56 0.51 0.58 0.77 0.86 0.86 0.90 0.94 0.94
0.64 0.64 0.64 0.64 0.64 0.64 0.65 0.67 0.68 0.72 0.73 0.72 0.76 0.73 0.69 0.64 0.59 0.53 0.42 0.57 0.60 0.61 0.44 0.32 0.51 0.49 0.55 0.59 0.53 0.61 0.68 0.77 0.82 0.78 0.75 0.74 0.78 0.66 0.51 0.40 0.49 0.60 0.64 0.60 0.63 0.67 0.74 0.77 0.86 1.01 0.98 0.96 0.98 1.04
0.65 0.66 0.67 0.68 0.68 0.69 0.68 0.67 0.69 0.73 0.75 0.75 0.76 0.70 0.67 0.64 0.58 0.46 0.44 0.60 0.66 0.63 0.48 0.36 0.38 0.54 0.61 0.55 0.56 0.55 0.66 0.77 0.80 0.86 0.82 0.80 0.75 0.72 0.57 0.44 0.50 0.59 0.64 0.66 0.70 0.73 0.74 0.83 0.84 1.03 1.06 1.07 1.11 1.19
0.66 0.69 0.71 0.71 0.71 0.72 0.71 0.74 0.74 0.71 0.70 0.67 0.66 0.66 0.65 0.64 0.60 0.50 0.56 0.65 0.75 0.60 0.56 0.38 0.38 0.45 0.64 0.50 0.52 0.67 0.60 0.71 0.84 0.89 0.92 0.81 0.84 0.75 0.53 0.55 0.71 0.67 0.65 0.67 0.72 0.83 0.88 1.00 1.05 1.09 1.11 1.06 1.06 1.07
0.70 0.70 0.72 0.72 0.78 0.78 0.76 0.73 0.70 0.66 0.64 0.64 0.64 0.63 0.58 0.54 0.46 0.51 0.62 0.67 0.72 0.62 0.46 0.45 0.36 0.41 0.72 0.63 0.63 0.66 0.71 0.55 0.89 0.77 0.80 0.84 0.76 0.63 0.60 0.65 0.67 0.64 0.57 0.59 0.78 0.93 0.98 0.97 1.01 1.01 1.02 1.05 1.01 0.99
0.70 0.72 0.73 0.74 0.76 0.78 0.76 0.71 0.70 0.68 0.69 0.68 0.64 0.51 0.41 0.50 0.63 0.74 0.59 0.49 0.51 0.56 0.55 0.41 0.48 0.43 0.61 0.61 0.60 0.62 0.69 0.61 0.58 0.69 0.90 0.71 0.67 0.79 0.82 0.79 0.78 0.83 0.81 0.78 0.77 0.83 0.95 0.96 0.96 1.00 1.04 1.08 1.03 1.03
0.70 0.71 0.72 0.71 0.72 0.72 0.72 0.72 0.71 0.71 0.69 0.61 0.51 0.45 0.64 0.71 0.68 0.59 0.46 0.43 0.43 0.40 0.45 0.43 0.42 0.41 0.59 0.56 0.60 0.69 0.62 0.64 0.53 0.65 0.65 0.56 0.53 0.70 0.85 0.87 0.96 1.01 0.95 0.93 0.94 0.91 0.98 1.00 1.01 1.06 1.12 1.11 1.11 1.10
0.67 0.68 0.71 0.72 0.71 0.69 0.70 0.71 0.71 0.66 0.60 0.59 0.58 0.65 0.66 0.58 0.54 0.46 0.42 0.45 0.42 0.36 0.43 0.40 0.40 0.45 0.52 0.64 0.68 0.70 0.63 0.65 0.49 0.74 0.64 0.46 0.60 0.80 0.95 0.97 1.08 1.11 1.07 1.08 1.13 1.15 1.20 1.21 1.20 1.15 1.12 1.10 1.13 1.17
0.63 0.64 0.67 0.70 0.68 0.68 0.68 0.68 0.70 0.67 0.65 0.63 0.58 0.54 0.53 0.54 0.41 0.38 0.34 0.38 0.40 0.47 0.58 0.57 0.50 0.50 0.53 0.60 0.69 0.68 0.53 0.56 0.78 0.65 0.53 0.57 0.70 0.86 1.00 1.12 1.16 1.20 1.19 1.21 1.24 1.28 1.23 1.18 1.21 1.18 1.14 1.19 1.22 1.19
0.65 0.66 0.67 0.70 0.70 0.72 0.73 0.73 0.72 0.69 0.63 0.52 0.48 0.39 0.40 0.38 0.39 0.38 0.42 0.45 0.52 0.60 0.64 0.66 0.60 0.57 0.53 0.52 0.69 0.57 0.60 0.67 0.54 0.52 0.52 0.68 0.81 0.92 1.11 1.21 1.19 1.16 1.22 1.20 1.19 1.19 1.16 1.14 1.18 1.24 1.25 1.28 1.27 1.20
0.67 0.68 0.70 0.75 0.75 0.71 0.69 0.68 0.67 0.66 0.57 0.49 0.51 0.40 0.45 0.54 0.61 0.65 0.66 0.61 0.63 0.69 0.72 0.68 0.66 0.66 0.48 0.55 0.77 0.67 0.58 0.45 0.46 0.47 0.60 0.70 0.89 1.01 1.14 1.22 1.21 1.18 1.19 1.14 1.15 1.15 1.17 1.22 1.24 1.24 1.29 1.31 1.24 1.17
0.70 0.73 0.77 0.80 0.78 0.77 0.76 0.76 0.75 0.72 0.66 0.59 0.58 0.54 0.62 0.61 0.61 0.65 0.67 0.65 0.74 0.73 0.76 0.76 0.72 0.57 0.46 0.55 0.61 0.63 0.56 0.44 0.48 0.60 0.71 0.89 0.94 1.07 1.19 1.24 1.22 1.19 1.17 1.17 1.20 1.23 1.25 1.26 1.25 1.25 1.25 1.20 1.18 1.16
0.79 0.71 0.82 0.84 0.89 0.92 0.93 0.84 0.79 0.70 0.64 0.62 0.61 0.71 0.67 0.65 0.65 0.70 0.76 0.78 0.88 0.80 0.69 0.69 0.62 0.56 0.63 0.59 0.61 0.79 0.67 0.80 0.81 0.78 0.91 1.04 1.00 1.14 1.28 1.27 1.25 1.24 1.22 1.21 1.23 1.28 1.26 1.29 1.23 1.15 1.07 1.15 1.20 1.20
0.76 0.82 0.86 0.91 0.95 0.94 0.92 0.86 0.76 0.69 0.61 0.66 0.62 0.68 0.74 0.77 0.75 0.80 0.86 0.93 0.88 0.86 0.81 0.70 0.85 0.69 0.65 0.61 0.67 0.82 0.90 0.97 1.00 0.98 1.04 1.12 1.17 1.28 1.32 1.28 1.28 1.29 1.30 1.32 1.31 1.31 1.31 1.21 1.14 1.16 1.19 1.21 1.17 1.13
0.88 0.91 0.93 0.96 0.98 0.87 0.79 0.80 0.80 0.62 0.66 0.72 0.75 0.78 0.80 0.83 0.91 0.95 0.97 1.01 1.03 1.02 0.89 0.86 0.79 0.73 0.74 0.85 0.92 0.93 0.99 1.03 1.01 1.05 1.08 1.14 1.18 1.24 1.23 1.24 1.28 1.31 1.31 1.32 1.32 1.32 1.33 1.29 1.24 1.22 1.17 1.14 1.05 0.95
0.89 0.96 1.00 1.03 1.03 0.83 0.75 0.78 0.89 0.72 0.66 0.72 0.81 0.80 0.82 0.89 0.96 0.98 0.98 0.99 0.98 0.91 0.85 0.81 0.82 0.89 0.92 1.03 1.11 1.13 1.14 1.13 1.09 1.00 0.99 1.10 1.20 1.21 1.22 1.21 1.21 1.25 1.30 1.34 1.34 1.32 1.25 1.18 1.18 1.16 1.08 0.94 0.81 0.75
0.91 0.98 1.02 1.01 0.91 0.86 0.81 0.80 0.79 0.80 0.81 0.77 0.84 0.85 0.81 0.92 0.88 0.88 0.89 1.00 0.91 0.86 0.82 0.93 0.99 1.09 1.19 1.21 1.25 1.26 1.22 1.20 1.12 1.09 1.02 1.04 1.23 1.28 1.28 1.29 1.30 1.31 1.26 1.26 1.19 1.15 1.12 1.06 1.01 0.92 0.84 0.81 0.77 0.69
0.93 1.00 0.96 0.95 0.83 0.83 0.80 0.91 0.83 0.87 0.81 0.79 0.82 0.85 0.77 0.75 0.82 0.86 0.96 0.89 0.88 0.93 0.98 1.02 1.06 1.12 1.17 1.20 1.22 1.28 1.29 1.29 1.28 1.22 1.19 1.17 1.13 1.19 1.23 1.21 1.23 1.20 1.18 1.14 1.10 1.03 0.99 0.91 0.81 0.75 0.71 0.67 0.67 0.66
0.99 0.96 0.90 0.87 0.75 0.74 0.74 0.96 0.80 0.82 0.71 0.72 0.80 0.72 0.73 0.79 0.87 0.98 0.81 0.89 0.92 1.08 1.10 1.14 1.18 1.23 1.23 1.29 1.31 1.30 1.32 1.28 1.22 1.25 1.26 1.24 1.23 1.22 1.21 1.20 1.19 1.12 1.05 1.02 1.00 0.93 0.85 0.79 0.75 0.73 0.70 0.69 0.66 0.59
1.00 0.85 0.76 0.71 0.72 0.67 0.86 0.79 0.86 0.81 0.80 0.74 0.71 0.66 0.72 0.76 0.87 0.82 0.76 0.87 1.00 1.10 1.10 1.16 1.20 1.18 1.23 1.24 1.22 1.25 1.29 1.29 1.25 1.28 1.31 1.27 1.21 1.17 1.17 1.12 1.07 1.03 1.00 0.97 0.92 0.86 0.81 0.78 0.77 0.73 0.69 0.61 0.54 0.50
0.68 0.68 0.74 0.64 0.75 0.72 0.71 0.74 0.76 0.76 0.70 0.74 0.70 0.69 0.73 0.84 0.72 0.71 0.73 0.88 1.00 1.02 1.10 1.18 1.19 1.21 1.15 1.16 1.22 1.26 1.31 1.25 1.16 1.11 1.20 1.23 1.22 1.18 1.14 1.14 1.11 1.09 1.07 0.99 0.90 0.82 0.79 0.72 0.65 0.57 0.54 0.53 0.51 0.52
0.60 0.71 0.68 0.69 0.71 0.71 0.74 0.69 0.72 0.73 0.75 0.72 0.74 0.81 0.84 0.75 0.67 0.66 0.79 0.93 1.01 1.06 1.10 1.13 1.17 1.15 1.18 1.26 1.19 1.17 1.22 1.26 1.15 1.04 1.06 1.06 1.01 0.95 0.92 0.88 0.83 0.82 0.84 0.81 0.78 0.71 0.64 0.59 0.56 0.53 0.51 0.52 0.50 0.48
0.61 0.65 0.78 0.89 0.85 0.86 0.80 0.82 0.85 0.79 0.73 0.71 0.78 0.80 0.77 0.67 0.68 0.81 0.97 1.07 1.08 1.14 1.22 1.27 1.26 1.18 1.17 1.22 1.25 1.22 1.19 1.15 1.08 1.02 1.04 1.01 0.98 0.93 0.86 0.77 0.71 0.71 0.72 0.68 0.65 0.60 0.55 0.52 0.52 0.52 0.49 0.47 0.48 0.49
0.75 0.78 0.68 0.78 0.79 0.85 0.76 0.77 0.76 0.74 0.78 0.87 0.86 0.74 0.72 0.73 0.77 0.96 1.07 1.18 1.20 1.25 1.22 1.24 1.30 1.28 1.20 1.15 1.15 1.13 1.13 1.12 1.07 1.04 1.01 0.98 0.98 0.94 0.88 0.84 0.78 0.71 0.68 0.62 0.58 0.57 0.54 0.51 0.47 0.45 0.46 0.47 0.47 0.48
0.73 0.81 0.82 0.75 0.79 0.79 0.78 0.76 0.77 0.86 0.93 0.89 0.80 0.79 0.83 0.97 1.08 1.10 1.15 1.21 1.22 1.23 1.21 1.17 1.18 1.16 1.13 1.14 1.13 1.11 1.07 1.02 0.94 0.87 0.83 0.79 0.80 0.80 0.86 0.85 0.79 0.75 0.69 0.61 0.56 0.50 0.47 0.46 0.46 0.47 0.46 0.46 0.46 0.46
0.74 0.82 0.76 0.76 0.73 0.71 0.80 0.86 0.84 0.91 0.92 0.92 0.93 0.92 0.93 1.02 1.14 1.25 1.19 1.14 1.12 1.13 1.12 1.15 1.08 1.07 1.06 1.05 0.98 0.97 0.99 1.01 0.98 0.89 0.80 0.75 0.70 0.68 0.66 0.66 0.67 0.65 0.63 0.59 0.54 0.50 0.43 0.41 0.41 0.41 0.43 0.42 0.44 0.46
0.81 0.79 0.74 0.75 0.73 0.81 0.87 0.90 0.88 0.88 0.87 0.85 0.88 0.81 0.80 0.84 0.95 1.14 1.18 1.13 1.08 1.02 1.02 0.97 0.98 1.01 1.00 0.98 0.95 0.90 0.87 0.89 0.86 0.76 0.68 0.62 0.58 0.56 0.54 0.53 0.52 0.54 0.55 0.52 0.49 0.44 0.39 0.34 0.36 0.39 0.40 0.43 0.50 0.52
0.77 0.74 0.71 0.69 0.72 0.84 0.89 0.81 0.78 0.74 0.73 0.71 0.71 0.76 0.76 0.70 0.65 0.78 0.98 1.10 1.08 0.99 0.89 0.88 0.88 0.90 0.96 0.95 0.96 0.96 0.92 0.81 0.73 0.70 0.63 0.61 0.57 0.55 0.54 0.52 0.50 0.46 0.44 0.41 0.36 0.36 0.39 0.41 0.42 0.44 0.46 0.51 0.55 0.57
0.74 0.74 0.74 0.72 0.72 0.73 0.76 0.75 0.71 0.69 0.69 0.66 0.64 0.66 0.65 0.65 0.60 0.68 0.80 0.85 0.82 0.79 0.84 0.90 0.92 0.94 0.94 0.89 0.83 0.77 0.74 0.73 0.66 0.59 0.58 0.56 0.56 0.55 0.53 0.49 0.47 0.43 0.35 0.34 0.37 0.41 0.45 0.47 0.48 0.50 0.52 0.54 0.56 0.60

GFSWCAN_prec_pwat_291.txt.gz
Precipitable_Water
0.97 0.96 0.94 0.94 0.92 0.91 0.90 0.89 0.84 0.80 0.77 0.75 0.75 0.73 0.73 0.69 0.65 0.64 0.67 0.69 0.60 0.52 0.62 0.67 0.72 0.73 0.73 0.71 0.61 0.75 0.55 0.49 0.51 0.41 0.40 0.40 0.35 0.40 0.35 0.39 0.31 0.26 0.26 0.26 0.32 0.34 0.32 0.67 0.67 0.41 0.57 0.76 0.77 0.84
1.00 0.99 0.97 0.95 0.95 0.93 0.92 0.90 0.86 0.82 0.77 0.75 0.77 0.73 0.74 0.70 0.67 0.66 0.61 0.70 0.68 0.51 0.56 0.69 0.66 0.76 0.80 0.81 0.74 0.72 0.70 0.70 0.75 0.55 0.52 0.53 0.45 0.48 0.43 0.41 0.45 0.29 0.30 0.29 0.32 0.39 0.58 0.72 0.55 0.57 0.71 0.76 0.74 0.73
0.83 0.81 0.82 0.80 0.79 0.76 0.76 0.77 0.80 0.82 0.80 0.77 0.78 0.70 0.70 0.70 0.69 0.65 0.61 0.63 0.60 0.46 0.39 0.38 0.39 0.49 0.66 0.70 0.84 0.61 0.70 0.85 0.79 0.84 0.81 0.75 0.65 0.67 0.45 0.44 0.53 0.47 0.55 0.41 0.45 0.64 0.71 0.67 0.63 0.64 0.66 0.65 0.72 0.82
0.73 0.72 0.72 0.70 0.66 0.65 0.65 0.66 0.69 0.76 0.80 0.78 0.81 0.73 0.70 0.69 0.69 0.65 0.61 0.64 0.58 0.51 0.36 0.39 0.52 0.52 0.62 0.68 0.65 0.72 0.79 0.85 0.86 0.77 0.69 0.67 0.58 0.67 0.53 0.56 0.53 0.52 0.52 0.48 0.65 0.70 0.66 0.67 0.70 0.66 0.67 0.78 0.82 0.88
0.66 0.66 0.65 0.65 0.65 0.65 0.66 0.66 0.66 0.69 0.72 0.73 0.77 0.76 0.73 0.70 0.66 0.61 0.61 0.63 0.61 0.52 0.46 0.47 0.54 0.49 0.55 0.59 0.64 0.65 0.65 0.67 0.66 0.61 0.57 0.52 0.67 0.70 0.64 0.64 0.56 0.68 0.58 0.44 0.54 0.69 0.56 0.60 0.69 0.75 0.77 0.81 0.87 0.86
0.63 0.65 0.66 0.67 0.68 0.68 0.68 0.68 0.68 0.69 0.74 0.74 0.74 0.76 0.73 0.66 0.60 0.57 0.47 0.63 0.62 0.61 0.44 0.37 0.50 0.51 0.49 0.44 0.48 0.60 0.63 0.61 0.68 0.66 0.62 0.70 0.81 0.73 0.51 0.42 0.56 0.62 0.67 0.67 0.58 0.74 0.67 0.76 0.80 0.86 0.91 0.94 0.95 1.00
0.64 0.66 0.69 0.71 0.71 0.72 0.73 0.70 0.70 0.72 0.76 0.78 0.77 0.76 0.69 0.66 0.59 0.51 0.52 0.64 0.65 0.63 0.46 0.38 0.37 0.44 0.53 0.54 0.50 0.47 0.61 0.63 0.67 0.70 0.68 0.73 0.74 0.72 0.57 0.46 0.52 0.50 0.66 0.77 0.88 0.95 0.81 0.83 0.74 0.91 1.00 1.05 1.12 1.21
0.66 0.70 0.71 0.72 0.75 0.76 0.75 0.76 0.75 0.72 0.70 0.70 0.68 0.66 0.65 0.63 0.61 0.55 0.56 0.60 0.69 0.56 0.52 0.39 0.39 0.48 0.57 0.46 0.45 0.53 0.48 0.55 0.67 0.68 0.75 0.73 0.76 0.78 0.51 0.53 0.60 0.63 0.66 0.81 0.72 0.73 0.79 0.88 0.94 0.99 1.07 1.10 1.12 1.15
0.67 0.69 0.72 0.73 0.76 0.80 0.78 0.76 0.72 0.67 0.64 0.64 0.65 0.64 0.60 0.58 0.50 0.62 0.65 0.63 0.73 0.60 0.41 0.43 0.36 0.41 0.60 0.53 0.50 0.58 0.58 0.46 0.59 0.63 0.66 0.79 0.73 0.64 0.61 0.61 0.64 0.69 0.89 0.82 0.73 0.74 0.91 0.90 0.97 1.05 1.08 1.16 1.14 1.12
0.68 0.69 0.70 0.71 0.73 0.75 0.74 0.72 0.73 0.72 0.67 0.67 0.64 0.58 0.46 0.60 0.70 0.68 0.55 0.50 0.48 0.52 0.52 0.37 0.50 0.53 0.60 0.55 0.56 0.63 0.68 0.56 0.44 0.49 0.74 0.66 0.64 0.76 0.82 0.86 0.87 0.87 0.93 0.83 0.73 0.76 0.99 1.00 1.03 1.08 1.14 1.22 1.18 1.09
0.68 0.69 0.70 0.70 0.69 0.68 0.69 0.68 0.69 0.70 0.70 0.62 0.55 0.50 0.67 0.67 0.61 0.56 0.47 0.44 0.43 0.42 0.46 0.38 0.36 0.42 0.55 0.58 0.56 0.60 0.56 0.55 0.42 0.47 0.48 0.53 0.52 0.63 0.82 0.89 0.90 0.86 0.85 0.84 0.82 0.88 0.99 1.03 1.12 1.14 1.17 1.22 1.17 1.13
0.65 0.66 0.66 0.69 0.71 0.69 0.67 0.67 0.67 0.66 0.62 0.58 0.56 0.62 0.61 0.56 0.52 0.45 0.40 0.43 0.40 0.36 0.44 0.42 0.42 0.40 0.54 0.61 0.67 0.78 0.57 0.63 0.47 0.55 0.47 0.38 0.50 0.73 0.73 0.77 0.87 0.90 0.91 0.94 0.99 1.11 1.24 1.27 1.27 1.28 1.24 1.18 1.16 1.19
0.64 0.65 0.66 0.69 0.71 0.70 0.68 0.67 0.68 0.67 0.63 0.62 0.57 0.50 0.48 0.48 0.38 0.34 0.31 0.36 0.38 0.44 0.55 0.54 0.48 0.48 0.48 0.54 0.56 0.68 0.58 0.52 0.68 0.53 0.47 0.55 0.64 0.66 0.84 0.78 0.90 1.02 1.01 1.08 1.15 1.26 1.34 1.33 1.40 1.34 1.24 1.25 1.26 1.22
0.66 0.66 0.68 0.71 0.70 0.69 0.70 0.70 0.71 0.69 0.62 0.51 0.47 0.37 0.40 0.39 0.40 0.43 0.43 0.46 0.60 0.66 0.64 0.62 0.54 0.55 0.49 0.46 0.50 0.48 0.59 0.59 0.48 0.46 0.46 0.60 0.68 0.76 0.95 0.94 0.99 1.01 1.11 1.20 1.30 1.32 1.30 1.34 1.37 1.38 1.34 1.29 1.21 1.17
0.72 0.76 0.79 0.84 0.86 0.80 0.77 0.74 0.69 0.67 0.59 0.50 0.50 0.37 0.40 0.44 0.48 0.54 0.55 0.51 0.57 0.66 0.64 0.60 0.58 0.55 0.55 0.48 0.48 0.54 0.55 0.46 0.47 0.48 0.59 0.73 0.89 0.95 0.96 0.99 1.11 1.20 1.33 1.39 1.40 1.37 1.39 1.38 1.32 1.28 1.30 1.28 1.28 1.28
0.82 0.83 0.84 0.88 0.87 0.90 0.91 0.88 0.82 0.77 0.68 0.60 0.58 0.52 0.58 0.59 0.60 0.61 0.61 0.60 0.67 0.65 0.65 0.63 0.55 0.50 0.51 0.47 0.45 0.38 0.47 0.48 0.51 0.58 0.67 0.76 1.03 1.12 1.07 1.23 1.30 1.41 1.47 1.44 1.43 1.40 1.36 1.33 1.29 1.26 1.30 1.29 1.30 1.31
0.86 0.82 0.91 0.92 0.94 0.99 0.97 0.88 0.82 0.70 0.65 0.63 0.61 0.69 0.67 0.67 0.65 0.67 0.66 0.66 0.75 0.66 0.55 0.59 0.49 0.46 0.61 0.44 0.40 0.45 0.49 0.69 0.86 0.91 0.97 0.84 1.01 1.05 1.20 1.33 1.44 1.42 1.44 1.42 1.41 1.39 1.35 1.34 1.33 1.28 1.21 1.28 1.32 1.27
0.84 0.95 0.97 0.99 1.01 1.00 0.93 0.86 0.74 0.68 0.60 0.67 0.64 0.71 0.76 0.78 0.75 0.77 0.80 0.78 0.72 0.68 0.68 0.60 0.71 0.63 0.54 0.42 0.39 0.51 0.68 0.81 1.01 1.03 1.10 1.23 1.22 1.26 1.32 1.38 1.46 1.47 1.42 1.41 1.38 1.33 1.30 1.28 1.29 1.28 1.29 1.30 1.21 1.17
0.83 0.92 1.00 1.05 1.03 0.93 0.80 0.78 0.80 0.63 0.67 0.73 0.77 0.80 0.81 0.84 0.91 0.93 0.92 0.93 0.93 0.92 0.89 0.80 0.68 0.63 0.63 0.70 0.65 0.69 0.78 0.89 0.93 1.03 1.08 1.15 1.21 1.25 1.31 1.36 1.43 1.41 1.38 1.32 1.27 1.27 1.32 1.32 1.31 1.30 1.29 1.23 1.13 1.14
0.92 0.94 0.99 1.04 1.05 0.87 0.77 0.77 0.89 0.73 0.67 0.74 0.82 0.80 0.86 0.89 0.93 0.97 0.98 0.99 0.96 0.94 0.82 0.77 0.73 0.83 0.89 0.90 0.90 0.86 0.96 1.05 1.07 1.06 0.99 1.06 1.22 1.26 1.25 1.33 1.37 1.43 1.36 1.32 1.35 1.35 1.32 1.32 1.34 1.33 1.28 1.19 1.13 1.07
0.94 0.99 1.02 1.03 0.95 0.90 0.82 0.80 0.77 0.79 0.81 0.78 0.84 0.85 0.82 0.95 0.91 0.92 0.93 1.01 0.92 0.86 0.83 0.92 0.94 1.01 1.07 1.09 1.10 1.13 1.16 1.17 1.15 1.14 1.09 1.11 1.26 1.32 1.32 1.42 1.51 1.52 1.39 1.31 1.26 1.28 1.29 1.25 1.30 1.30 1.20 1.11 1.01 0.85
0.94 0.99 0.95 0.96 0.84 0.87 0.83 0.89 0.82 0.86 0.80 0.79 0.81 0.86 0.79 0.77 0.83 0.89 1.00 0.89 0.86 0.92 0.98 1.00 1.05 1.13 1.17 1.21 1.23 1.27 1.27 1.25 1.25 1.25 1.22 1.24 1.19 1.22 1.26 1.34 1.34 1.30 1.27 1.25 1.24 1.21 1.22 1.24 1.20 1.14 1.06 0.93 0.80 0.75
0.98 0.97 0.89 0.86 0.77 0.80 0.77 0.97 0.79 0.80 0.69 0.73 0.81 0.75 0.76 0.80 0.89 1.00 0.86 0.93 0.96 1.08 1.12 1.15 1.18 1.26 1.23 1.28 1.30 1.30 1.33 1.28 1.22 1.22 1.20 1.24 1.28 1.29 1.27 1.26 1.26 1.19 1.18 1.24 1.24 1.20 1.11 1.10 1.01 0.94 0.84 0.76 0.74 0.68
0.98 0.83 0.76 0.72 0.73 0.71 0.87 0.78 0.84 0.79 0.78 0.73 0.72 0.69 0.73 0.82 0.95 0.87 0.80 0.89 1.00 1.13 1.15 1.19 1.22 1.21 1.23 1.26 1.25 1.28 1.33 1.34 1.26 1.23 1.23 1.18 1.18 1.23 1.28 1.26 1.22 1.18 1.16 1.12 1.10 1.06 0.98 0.91 0.87 0.79 0.77 0.76 0.71 0.64
0.71 0.71 0.74 0.66 0.80 0.78 0.74 0.73 0.74 0.72 0.65 0.71 0.69 0.69 0.75 0.90 0.78 0.79 0.80 0.91 1.02 1.06 1.12 1.19 1.22 1.20 1.16 1.17 1.23 1.26 1.34 1.30 1.24 1.21 1.23 1.24 1.17 1.11 1.06 1.07 1.09 1.14 1.10 1.01 0.92 0.89 0.89 0.86 0.84 0.80 0.76 0.70 0.62 0.56
0.61 0.73 0.69 0.71 0.75 0.75 0.74 0.70 0.72 0.70 0.71 0.68 0.71 0.79 0.83 0.77 0.73 0.73 0.85 0.98 1.05 1.08 1.13 1.16 1.16 1.16 1.21 1.23 1.18 1.18 1.19 1.25 1.22 1.17 1.20 1.23 1.18 1.13 1.07 1.04 1.04 1.07 1.15 1.05 1.02 0.98 0.89 0.84 0.77 0.69 0.63 0.60 0.58 0.56
0.62 0.67 0.80 0.91 0.87 0.87 0.81 0.85 0.86 0.78 0.71 0.69 0.74 0.76 0.73 0.63 0.67 0.83 1.01 1.10 1.10 1.19 1.26 1.27 1.25 1.25 1.21 1.20 1.21 1.21 1.20 1.19 1.14 1.09 1.12 1.16 1.18 1.20 1.16 1.08 0.96 0.93 1.01 0.98 0.92 0.82 0.71 0.65 0.62 0.60 0.58 0.54 0.52 0.54
0.76 0.78 0.71 0.80 0.85 0.88 0.79 0.81 0.77 0.73 0.77 0.87 0.83 0.72 0.72 0.74 0.77 0.96 1.05 1.17 1.21 1.25 1.27 1.29 1.29 1.26 1.25 1.22 1.19 1.14 1.12 1.08 1.03 1.00 0.97 0.94 0.92 0.88 0.84 0.82 0.78 0.76 0.75 0.74 0.72 0.68 0.62 0.59 0.55 0.55 0.54 0.51 0.49 0.53
0.74 0.84 0.85 0.78 0.82 0.84 0.80 0.80 0.81 0.87 0.95 0.93 0.81 0.81 0.85 0.99 1.07 1.09 1.15 1.19 1.24 1.24 1.18 1.15 1.16 1.17 1.15 1.17 1.16 1.10 1.07 1.03 0.96 0.88 0.84 0.81 0.82 0.83 0.86 0.78 0.74 0.70 0.64 0.60 0.59 0.59 0.57 0.56 0.54 0.51 0.51 0.51 0.51 0.49
0.72 0.82 0.78 0.78 0.74 0.74 0.81 0.90 0.86 0.93 0.97 0.96 0.98 1.00 1.03 1.09 1.13 1.22 1.20 1.19 1.17 1.13 1.18 1.11 1.10 1.11 1.03 1.03 1.02 1.03 1.05 1.03 0.98 0.88 0.81 0.77 0.76 0.79 0.81 0.77 0.74 0.73 0.67 0.61 0.56 0.53 0.48 0.48 0.46 0.46 0.45 0.46 0.46 0.46
0.79 0.80 0.78 0.78 0.76 0.83 0.85 0.90 0.92 0.92 0.91 0.87 0.89 0.84 0.88 1.03 1.14 1.18 1.15 1.18 1.19 1.17 1.11 1.04 1.05 1.11 0.99 0.97 0.96 0.91 0.87 0.90 0.90 0.85 0.81 0.69 0.62 0.59 0.59 0.61 0.65 0.64 0.61 0.57 0.53 0.46 0.39 0.37 0.37 0.38 0.40 0.42 0.46 0.49
0.79 0.76 0.74 0.72 0.76 0.85 0.86 0.81 0.80 0.79 0.78 0.77 0.76 0.77 0.77 0.77 0.81 1.02 1.17 1.04 0.97 0.95 0.98 1.00 0.99 1.01 1.05 1.03 0.99 0.97 0.91 0.85 0.77 0.70 0.63 0.62 0.61 0.59 0.57 0.54 0.53 0.54 0.54 0.53 0.51 0.46 0.43 0.36 0.36 0.40 0.43 0.46 0.49 0.55
0.74 0.75 0.77 0.75 0.75 0.74 0.77 0.76 0.71 0.69 0.71 0.70 0.71 0.72 0.72 0.70 0.62 0.73 0.93 1.04 0.98 0.97 0.92 0.92 0.94 0.95 0.96 0.95 0.94 0.89 0.82 0.81 0.74 0.66 0.62 0.60 0.60 0.58 0.56 0.53 0.50 0.47 0.44 0.40 0.36 0.38 0.41 0.44 0.47 0.49 0.50 0.54 0.57 0.59